Laatste waarneming: 05:03
Temperatuur:9,4°C
Dauwpunt:6,5°C
Rel. vocht:82,0%
Natte-bol:8,2°C
Wind (gem. 10 min.):1,3 m/s
Wind (max. 10 min.):1.7E+308 m/s
Windrichting:107°
Neerslagsom:0,0 mm
Neerslagintensiteit:0,0 mm/u
Luchtdruk:1017,9 hPa
Straling:0,0 W/m2
 
Maximumtemp.:12,6°C (00:00)
Minimumtemp.:9,4°C (05:02)
Hoogste windstoot:- m/s (00:17)


Bekijk de verwachting.

Bekijk de grafieken.
Bekijk het weekoverzicht.
Bekijk het maandoverzicht.
Bekijk het jaaroverzicht.
Dagtabel
Tijd Temp. Dauwp. Natte-bol Rel. Hum. Windsnelh. Windricht. Windstoot Neerslag Straling Luchtdruk
 
05:03 9,4 6,5 8,2 82,0 1,3 107 - 0,0 0 1.017,9
05:02 9,4 6,5 8,2 82,0 0,8 111 - 0,0 0 1.017,9
05:01 9,4 6,5 8,2 82,0 0,3 111 - 0,0 0 1.017,9
05:00 9,4 6,5 8,2 82,0 0,3 325 - 0,0 0 1.017,8
 
04:59 9,4 6,5 8,2 82,0 0,3 70 - 0,0 0 1.017,8
04:58 9,4 6,5 8,2 82,0 0,6 158 - 0,0 0 1.017,8
04:57 9,4 6,5 8,2 82,0 1,1 195 - 0,0 0 1.017,9
04:56 9,4 6,5 8,2 82,0 1,1 225 - 0,0 0 1.017,9
04:55 9,4 6,5 8,2 82,0 0,6 107 - 0,0 0 1.017,9
04:54 9,4 6,5 8,2 82,0 0,8 90 - 0,0 0 1.017,8
04:53 9,4 6,5 8,2 82,0 0,6 91 - 0,0 0 1.017,8
04:52 9,4 6,5 8,2 82,0 0,7 350 - 0,0 0 1.017,8
04:51 9,4 6,5 8,2 82,0 0,6 61 - 0,0 0 1.017,8
04:50 9,5 6,5 8,2 82,0 0,3 289 - 0,0 0 1.017,8
04:49 9,5 6,6 8,3 82,0 0,3 274 - 0,0 0 1.017,8
04:48 9,5 6,6 8,3 82,0 0,5 99 - 0,0 0 1.017,9
04:47 9,5 6,6 8,3 82,0 0,6 234 - 0,0 0 1.017,9
04:46 9,5 6,6 8,3 82,0 0,6 107 - 0,0 0 1.017,8
04:45 9,5 6,6 8,3 82,0 0,4 248 - 0,0 0 1.017,8
04:44 9,5 6,6 8,3 82,0 0,5 70 - 0,0 0 1.017,8
04:43 9,5 6,6 8,3 82,0 0,5 332 - 0,0 0 1.017,9
04:42 9,5 6,6 8,3 81,8 0,4 290 - 0,0 0 1.017,9
04:41 9,5 6,4 8,2 81,0 0,5 80 - 0,0 0 1.017,9
04:40 9,6 6,6 8,3 81,7 0,8 7 - 0,0 0 1.017,9
04:39 9,6 6,5 8,3 81,2 0,2 124 - 0,0 0 1.017,8
04:38 9,5 6,4 8,2 81,0 0,1 300 - 0,0 0 1.017,8
04:37 9,5 6,5 8,2 81,1 0,4 130 - 0,0 0 1.017,8
04:36 9,6 6,6 8,3 82,0 1,6 111 - 0,0 0 1.017,8
04:35 9,6 6,6 8,3 81,7 1,6 107 - 0,0 0 1.017,9
04:34 9,6 6,5 8,3 81,0 1,2 148 - 0,0 0 1.017,8
04:33 9,6 6,5 8,3 81,0 0,5 58 - 0,0 0 1.017,8
04:32 9,6 6,5 8,3 81,0 0,4 292 - 0,0 0 1.017,8
04:31 9,6 6,5 8,3 81,0 0,5 119 - 0,0 0 1.017,8
04:30 9,6 6,5 8,3 81,0 0,8 213 - 0,0 0 1.017,8
04:29 9,6 6,5 8,3 81,0 1,1 95 - 0,0 0 1.017,8
04:28 9,6 6,5 8,3 81,0 1,6 88 - 0,0 0 1.017,8
04:27 9,6 6,5 8,3 81,0 1,2 82 - 0,0 0 1.017,8
04:26 9,6 6,5 8,3 81,0 0,5 101 - 0,0 0 1.017,8
04:25 9,6 6,5 8,3 81,0 0,3 309 - 0,0 0 1.017,8
04:24 9,6 6,5 8,3 81,0 0,6 94 - 0,0 0 1.017,8
04:23 9,6 6,5 8,3 81,0 0,8 112 - 0,0 0 1.017,8
04:22 9,7 6,6 8,4 81,0 0,2 315 - 0,0 0 1.017,8
04:21 9,7 6,6 8,4 81,0 0,1 190 - 0,0 0 1.017,8
04:20 9,7 6,6 8,4 81,0 0,5 36 - 0,0 0 1.017,8
04:19 9,7 6,6 8,4 81,0 0,5 10 - 0,0 0 1.017,8
04:18 9,7 6,6 8,4 81,0 0,6 174 - 0,0 0 1.017,8
04:17 9,7 6,6 8,4 81,0 0,6 124 - 0,0 0 1.017,8
04:16 9,7 6,6 8,4 81,0 0,6 285 - 0,0 0 1.017,8
04:15 9,7 6,6 8,4 81,0 0,7 311 - 0,0 0 1.017,8
04:14 9,7 6,6 8,4 81,0 0,7 155 - 0,0 0 1.017,8
04:13 9,7 6,6 8,4 81,0 1,3 167 - 0,0 0 1.017,8
04:12 9,7 6,6 8,4 81,0 1,5 95 - 0,0 0 1.017,8
04:11 9,7 6,6 8,4 81,0 0,9 113 - 0,0 0 1.017,8
04:10 9,7 6,6 8,4 81,0 0,3 315 - 0,0 0 1.017,9
04:09 9,7 6,6 8,4 81,0 0,7 290 - 0,0 0 1.017,8
04:08 9,7 6,6 8,4 81,0 0,1 253 - 0,0 0 1.017,8
04:07 9,7 6,6 8,4 81,0 0,6 79 - 0,0 0 1.017,8
04:06 9,7 6,6 8,4 81,0 0,7 110 - 0,0 0 1.017,8
04:05 9,7 6,6 8,4 81,0 0,6 203 - 0,0 0 1.017,8
04:04 9,7 6,6 8,4 81,0 0,8 93 - 0,0 0 1.017,8
04:03 9,7 6,6 8,4 81,0 1,2 97 - 0,0 0 1.017,8
04:02 9,7 6,6 8,4 81,0 1,6 137 - 0,0 0 1.017,8
04:01 9,7 6,6 8,4 80,8 1,9 110 - 0,0 0 1.017,7
04:00 9,7 6,5 8,3 80,0 2,0 116 - 0,0 0 1.017,7
 
03:59 9,7 6,5 8,3 80,0 1,7 94 - 0,0 0 1.017,6
03:58 9,8 6,5 8,4 80,0 1,4 107 - 0,0 0 1.017,7
03:57 9,8 6,5 8,4 80,0 1,0 161 - 0,0 0 1.017,7
03:56 9,8 6,5 8,4 80,0 0,7 39 - 0,0 0 1.017,7
03:55 9,8 6,5 8,4 80,0 0,2 181 - 0,0 0 1.017,8
03:54 9,8 6,5 8,4 80,0 0,4 292 - 0,0 0 1.017,8
03:53 9,8 6,5 8,4 80,0 0,5 113 - 0,0 0 1.017,8
03:52 9,8 6,5 8,4 80,0 0,8 219 - 0,0 0 1.017,7
03:51 9,8 6,5 8,4 80,0 0,6 63 - 0,0 0 1.017,8
03:50 9,8 6,5 8,4 80,0 1,2 74 - 0,0 0 1.017,8
03:49 9,8 6,5 8,4 80,0 1,0 113 - 0,0 0 1.017,8
03:48 9,8 6,5 8,4 80,0 0,8 120 - 0,0 0 1.017,8
03:47 9,8 6,5 8,4 80,0 0,9 188 - 0,0 0 1.017,8
03:46 9,8 6,5 8,4 80,0 1,3 101 - 0,0 0 1.017,8
03:45 9,8 6,5 8,4 80,0 1,7 96 - 0,0 0 1.017,8
03:44 9,8 6,5 8,4 80,0 1,1 110 - 0,0 0 1.017,8
03:43 9,8 6,5 8,4 80,0 0,9 234 - 0,0 0 1.017,8
03:42 9,8 6,5 8,4 80,0 1,4 95 - 0,0 0 1.017,8
03:41 9,8 6,5 8,4 79,5 1,4 105 - 0,0 0 1.017,8
03:40 9,8 6,4 8,3 79,0 1,0 226 - 0,0 0 1.017,8
03:39 9,8 6,4 8,3 79,0 1,0 199 - 0,0 0 1.017,8
03:38 9,8 6,4 8,3 79,0 1,3 114 - 0,0 0 1.017,8
03:37 9,9 6,4 8,4 79,0 1,6 103 - 0,0 0 1.017,8
03:36 9,9 6,4 8,4 79,0 1,0 45 - 0,0 0 1.017,8
03:35 9,8 6,4 8,3 79,0 0,2 296 - 0,0 0 1.017,8
03:34 9,9 6,4 8,4 79,0 0,8 158 - 0,0 0 1.017,8
03:33 9,9 6,4 8,4 79,0 1,3 238 - 0,0 0 1.017,8
03:32 9,9 6,4 8,4 79,0 1,5 167 - 0,0 0 1.017,8
03:31 9,9 6,4 8,4 79,0 1,4 169 - 0,0 0 1.017,8
03:30 9,9 6,4 8,4 79,0 1,6 94 - 0,0 0 1.017,9
03:29 9,9 6,5 8,4 79,0 1,9 126 - 0,0 0 1.017,9
03:28 9,9 6,5 8,4 79,0 0,8 90 - 0,0 0 1.017,8
03:27 9,9 6,5 8,4 79,0 0,4 256 - 0,0 0 1.017,8
03:26 9,9 6,5 8,4 79,0 0,7 103 - 0,0 0 1.017,8
03:25 9,9 6,5 8,4 79,0 0,7 250 - 0,0 0 1.017,9
03:24 9,9 6,5 8,4 79,0 1,3 138 - 0,0 0 1.017,8
03:23 9,9 6,5 8,4 79,0 1,4 116 - 0,0 0 1.017,8
03:22 10,0 6,5 8,5 79,0 0,3 245 - 0,0 0 1.017,9
03:21 10,0 6,5 8,5 79,0 0,3 6 - 0,0 0 1.017,8
03:20 9,9 6,5 8,4 79,0 0,3 80 - 0,0 0 1.017,8
03:19 10,0 6,5 8,5 79,0 0,6 261 - 0,0 0 1.017,8
03:18 10,0 6,5 8,5 79,0 1,0 192 - 0,0 0 1.017,9
03:17 10,0 6,5 8,5 79,0 0,4 162 - 0,0 0 1.017,9
03:16 10,0 6,5 8,5 79,0 0,9 355 - 0,0 0 1.017,8
03:15 10,0 6,5 8,5 79,0 1,6 82 - 0,0 0 1.017,8
03:14 10,0 6,5 8,5 78,8 1,8 98 - 0,0 0 1.017,8
03:13 10,0 6,4 8,4 78,0 0,9 128 - 0,0 0 1.017,9
03:12 10,0 6,4 8,4 78,0 0,8 242 - 0,0 0 1.017,9
03:11 10,0 6,4 8,4 78,0 0,7 244 - 0,0 0 1.017,9
03:10 10,1 6,4 8,5 78,0 1,0 120 - 0,0 0 1.017,9
03:09 10,1 6,4 8,5 78,0 1,6 116 - 0,0 0 1.017,9
03:08 10,1 6,4 8,5 78,0 1,5 97 - 0,0 0 1.017,9
03:07 10,1 6,4 8,5 78,0 0,4 107 - 0,0 0 1.017,9
03:06 10,1 6,4 8,5 78,0 0,4 281 - 0,0 0 1.017,9
03:05 10,1 6,4 8,5 78,0 0,6 172 - 0,0 0 1.017,9
03:04 10,1 6,4 8,5 78,0 1,7 136 - 0,0 0 1.018,0
03:03 10,1 6,4 8,5 78,0 1,8 173 - 0,0 0 1.018,0
03:02 10,1 6,4 8,5 78,0 0,8 91 - 0,0 0 1.018,0
03:01 10,1 6,4 8,5 78,0 1,2 355 - 0,0 0 1.018,0
03:00 10,1 6,4 8,5 78,0 1,7 88 - 0,0 0 1.018,0
 
02:59 10,1 6,4 8,5 78,0 2,1 114 - 0,0 0 1.018,0
02:58 10,1 6,4 8,5 78,0 1,1 82 - 0,0 0 1.017,9
02:57 10,1 6,4 8,5 78,0 1,1 222 - 0,0 0 1.017,9
02:56 10,1 6,4 8,5 78,0 1,3 222 - 0,0 0 1.018,0
02:55 10,1 6,4 8,5 78,0 1,7 120 - 0,0 0 1.018,0
02:54 10,1 6,4 8,5 78,0 1,8 96 - 0,0 0 1.017,9
02:53 10,1 6,4 8,5 78,0 1,2 160 - 0,0 0 1.017,9
02:52 10,1 6,4 8,5 78,0 1,4 124 - 0,0 0 1.018,0
02:51 10,1 6,4 8,5 78,0 2,4 72 - 0,0 0 1.018,0
02:50 10,1 6,5 8,5 78,0 2,6 91 - 0,0 0 1.018,0
02:49 10,1 6,5 8,5 78,0 1,2 81 - 0,0 0 1.018,0
02:48 10,1 6,5 8,5 78,0 0,8 242 - 0,0 0 1.018,0
02:47 10,1 6,5 8,5 78,0 1,7 177 - 0,0 0 1.018,0
02:46 10,2 6,5 8,6 78,0 1,8 151 - 0,0 0 1.018,0
02:45 10,2 6,5 8,6 78,0 1,2 84 - 0,0 0 1.018,0
02:44 10,2 6,5 8,6 78,0 1,0 64 - 0,0 0 1.018,0
02:43 10,2 6,5 8,6 78,0 1,4 128 - 0,0 0 1.018,0
02:42 10,2 6,5 8,6 78,0 1,5 87 - 0,0 0 1.018,0
02:41 10,2 6,5 8,6 78,0 1,6 92 - 0,0 0 1.018,0
02:40 10,2 6,5 8,6 78,0 1,4 108 - 0,0 0 1.017,9
02:39 10,2 6,5 8,6 78,0 1,2 136 - 0,0 0 1.017,9
02:38 10,2 6,5 8,5 77,7 1,0 182 - 0,0 0 1.018,0
02:37 10,2 6,4 8,5 77,0 1,1 212 - 0,0 0 1.018,0
02:36 10,2 6,4 8,5 77,0 1,2 103 - 0,0 0 1.018,0
02:35 10,2 6,4 8,5 77,0 0,8 215 - 0,0 0 1.018,0
02:34 10,2 6,4 8,5 77,0 0,5 19 - 0,0 0 1.017,9
02:33 10,2 6,4 8,5 77,0 0,4 134 - 0,0 0 1.018,0
02:32 10,2 6,4 8,5 77,0 0,6 280 - 0,0 0 1.018,0
02:31 10,2 6,4 8,5 77,0 1,0 179 - 0,0 0 1.018,0
02:30 10,2 6,4 8,5 77,0 1,4 126 - 0,0 0 1.018,0
02:29 10,2 6,4 8,5 77,0 1,2 215 - 0,0 0 1.018,0
02:28 10,2 6,4 8,5 77,0 0,7 117 - 0,0 0 1.018,0
02:27 10,2 6,4 8,5 77,0 1,3 65 - 0,0 0 1.018,0
02:26 10,2 6,4 8,5 77,0 1,0 64 - 0,0 0 1.018,0
02:25 10,2 6,4 8,5 77,0 0,7 322 - 0,0 0 1.017,9
02:24 10,2 6,4 8,5 77,0 0,5 111 - 0,0 0 1.017,9
02:23 10,2 6,4 8,5 77,0 1,4 184 - 0,0 0 1.017,9
02:22 10,2 6,4 8,5 77,0 1,2 99 - 0,0 0 1.017,9
02:21 10,2 6,4 8,5 77,0 1,1 118 - 0,0 0 1.017,9
02:20 10,2 6,4 8,5 77,0 1,1 153 - 0,0 0 1.017,9
02:19 10,3 6,4 8,6 77,0 0,5 120 - 0,0 0 1.018,0
02:18 10,3 6,5 8,6 77,0 0,3 287 - 0,0 0 1.018,0
02:17 10,3 6,5 8,6 77,0 0,5 111 - 0,0 0 1.017,9
02:16 10,3 6,3 8,5 76,1 1,0 107 - 0,0 0 1.018,0
02:15 10,3 6,3 8,5 76,0 1,0 106 - 0,0 0 1.017,9
02:14 10,3 6,3 8,5 76,0 1,4 72 - 0,0 0 1.017,9
02:13 10,3 6,3 8,5 76,0 1,8 103 - 0,0 0 1.017,9
02:12 10,3 6,3 8,5 76,0 1,9 110 - 0,0 0 1.017,9
02:11 10,3 6,3 8,5 76,0 1,3 91 - 0,0 0 1.017,9
02:10 10,3 6,3 8,5 76,0 0,8 100 - 0,0 0 1.017,9
02:09 10,3 6,3 8,5 76,0 0,6 74 - 0,0 0 1.017,9
02:08 10,3 6,3 8,5 76,0 0,8 145 - 0,0 0 1.018,0
02:07 10,3 6,3 8,5 76,0 0,9 151 - 0,0 0 1.018,0
02:06 10,3 6,3 8,5 76,0 0,9 55 - 0,0 0 1.017,9
02:05 10,4 6,4 8,6 76,0 1,0 126 - 0,0 0 1.017,9
02:04 10,4 6,4 8,6 76,0 0,8 109 - 0,0 0 1.017,9
02:03 10,4 6,4 8,6 76,0 0,7 195 - 0,0 0 1.017,9
02:02 10,4 6,4 8,6 76,0 0,9 92 - 0,0 0 1.017,9
02:01 10,4 6,2 8,5 75,3 1,1 136 - 0,0 0 1.017,9
02:00 10,4 6,2 8,5 75,0 0,6 124 - 0,0 0 1.017,9
 
01:59 10,4 6,2 8,5 75,0 0,4 249 - 0,0 0 1.017,9
01:58 10,4 6,2 8,5 75,0 0,4 306 - 0,0 0 1.017,9
01:57 10,4 6,2 8,5 75,0 1,4 127 - 0,0 0 1.017,9
01:56 10,4 6,2 8,5 75,0 1,9 110 - 0,0 0 1.017,9
01:55 10,5 6,3 8,6 75,0 1,5 103 - 0,0 0 1.018,0
01:54 10,5 6,3 8,6 75,0 1,3 97 - 0,0 0 1.018,0
01:53 10,5 6,3 8,6 75,0 1,0 111 - 0,0 0 1.018,0
01:52 10,5 6,3 8,6 75,0 1,0 187 - 0,0 0 1.018,0
01:51 10,5 6,3 8,6 75,0 1,2 111 - 0,0 0 1.018,0
01:50 10,5 6,3 8,6 75,0 1,5 100 - 0,0 0 1.018,0
01:49 10,5 6,3 8,6 75,0 1,2 101 - 0,0 0 1.018,0
01:48 10,5 6,3 8,6 75,0 0,5 158 - 0,0 0 1.018,0
01:47 10,5 6,3 8,6 75,0 0,3 319 - 0,0 0 1.018,0
01:46 10,5 6,3 8,6 75,0 0,4 134 - 0,0 0 1.017,9
01:45 10,6 6,4 8,6 75,0 1,0 125 - 0,0 0 1.018,0
01:44 10,6 6,4 8,7 75,0 1,1 140 - 0,0 0 1.018,0
01:43 10,6 6,2 8,6 74,4 0,7 99 - 0,0 0 1.018,0
01:42 10,6 6,2 8,6 74,0 0,5 345 - 0,0 0 1.018,0
01:41 10,6 6,2 8,6 74,0 0,6 254 - 0,0 0 1.018,0
01:40 10,6 6,2 8,6 74,0 0,4 195 - 0,0 0 1.018,0
01:39 10,6 6,2 8,6 74,0 0,6 88 - 0,0 0 1.018,0
01:38 10,7 6,3 8,7 74,0 0,3 71 - 0,0 0 1.017,9
01:37 10,7 6,3 8,7 74,0 0,3 258 - 0,0 0 1.017,9
01:36 10,7 6,3 8,7 74,0 0,6 285 - 0,0 0 1.018,0
01:35 10,7 6,3 8,7 74,0 0,6 178 - 0,0 0 1.017,9
01:34 10,7 6,3 8,7 74,0 0,8 99 - 0,0 0 1.018,0
01:33 10,7 6,3 8,7 74,0 0,7 81 - 0,0 0 1.017,9
01:32 10,7 6,3 8,7 74,0 0,6 196 - 0,0 0 1.017,9
01:31 10,7 6,3 8,7 74,0 0,7 101 - 0,0 0 1.017,9
01:30 10,7 6,3 8,7 74,0 0,7 119 - 0,0 0 1.017,9
01:29 10,8 6,4 8,7 74,0 0,4 163 - 0,0 0 1.017,9
01:28 10,8 6,4 8,7 74,0 0,4 267 - 0,0 0 1.017,9
01:27 10,8 6,4 8,8 74,0 0,8 113 - 0,0 0 1.017,9
01:26 10,8 6,4 8,8 74,0 1,7 90 - 0,0 0 1.018,0
01:25 10,8 6,4 8,8 74,0 1,9 117 - 0,0 0 1.018,0
01:24 10,8 6,4 8,8 74,0 1,3 119 - 0,0 0 1.018,0
01:23 10,8 6,4 8,8 73,9 0,5 252 - 0,0 0 1.018,0
01:22 10,8 6,2 8,7 73,0 0,5 271 - 0,0 0 1.018,0
01:21 10,9 6,3 8,7 73,0 0,9 46 - 0,0 0 1.018,0
01:20 10,9 6,3 8,8 73,0 1,3 29 - 0,0 0 1.017,9
01:19 10,9 6,3 8,8 73,0 0,9 99 - 0,0 0 1.018,0
01:18 10,9 6,3 8,8 73,0 0,1 332 - 0,0 0 1.018,0
01:17 10,9 6,3 8,8 73,0 0,6 238 - 0,0 0 1.018,0
01:16 10,9 6,3 8,8 73,0 0,5 53 - 0,0 0 1.018,0
01:15 11,0 6,4 8,8 73,0 1,4 122 - 0,0 0 1.017,9
01:14 11,0 6,4 8,9 73,0 1,5 103 - 0,0 0 1.018,0
01:13 11,0 6,4 8,9 73,0 1,2 99 - 0,0 0 1.018,0
01:12 11,0 6,4 8,9 73,0 1,1 64 - 0,0 0 1.017,9
01:11 11,0 6,4 8,9 73,0 1,6 106 - 0,0 0 1.017,9
01:10 11,0 6,4 8,9 73,0 1,3 61 - 0,0 0 1.017,9
01:09 11,1 6,4 8,9 73,0 1,2 190 - 0,0 0 1.017,9
01:08 11,1 6,4 8,9 73,0 1,3 101 - 0,0 0 1.017,9
01:07 11,1 6,5 8,9 73,0 1,6 180 - 0,0 0 1.017,9
01:06 11,1 6,5 9,0 73,0 1,6 109 - 0,0 0 1.017,9
01:05 11,1 6,5 9,0 73,0 1,4 211 - 0,0 0 1.017,9
01:04 11,1 6,4 8,9 72,7 0,8 103 - 0,0 0 1.017,9
01:03 11,2 6,3 8,9 72,0 0,5 249 - 0,0 0 1.017,9
01:02 11,2 6,4 8,9 72,0 0,5 77 - 0,0 0 1.017,9
01:01 11,2 6,4 8,9 72,0 0,9 34 - 0,0 0 1.018,0
01:00 11,2 6,4 8,9 72,0 0,4 126 - 0,0 0 1.018,0
 
00:59 11,2 6,4 9,0 72,0 0,7 259 - 0,0 0 1.018,0
00:58 11,2 6,4 9,0 72,0 0,6 137 - 0,0 0 1.017,9
00:57 11,3 6,4 9,0 72,0 0,9 255 - 0,0 0 1.017,9
00:56 11,3 6,5 9,0 72,0 0,9 178 - 0,0 0 1.018,0
00:55 11,3 6,5 9,1 72,0 0,7 286 - 0,0 0 1.017,9
00:54 11,3 6,5 9,1 72,0 0,9 274 - 0,0 0 1.017,9
00:53 11,3 6,5 9,1 72,0 1,1 15 - 0,0 0 1.018,0
00:52 11,4 6,6 9,1 72,0 1,2 265 - 0,0 0 1.017,9
00:51 11,4 6,6 9,1 72,0 0,5 315 - 0,0 0 1.017,9
00:50 11,4 6,5 9,1 71,3 0,3 111 - 0,0 0 1.017,9
00:49 11,4 6,4 9,1 71,0 0,5 277 - 0,0 0 1.017,9
00:48 11,5 6,5 9,1 71,0 0,7 168 - 0,0 0 1.017,9
00:47 11,5 6,5 9,1 71,0 1,2 119 - 0,0 0 1.017,9
00:46 11,5 6,5 9,1 71,0 1,8 52 - 0,0 0 1.017,9
00:45 11,6 6,5 9,2 71,0 2,3 79 - 0,0 0 1.017,9
00:44 11,6 6,5 9,2 71,0 1,7 88 - 0,0 0 1.018,0
00:43 11,6 6,6 9,2 71,0 0,9 269 - 0,0 0 1.017,9
00:42 11,6 6,6 9,2 71,0 0,6 109 - 0,0 0 1.017,9
00:41 11,6 6,6 9,2 71,0 0,8 188 - 0,0 0 1.017,9
00:40 11,6 6,6 9,3 71,0 0,8 57 - 0,0 0 1.017,9
00:39 11,7 6,6 9,3 71,0 0,6 113 - 0,0 0 1.017,9
00:38 11,7 6,6 9,3 71,0 0,4 313 - 0,0 0 1.017,9
00:37 11,7 6,5 9,2 70,1 0,6 222 - 0,0 0 1.017,9
00:36 11,7 6,5 9,2 70,0 0,4 96 - 0,0 0 1.017,9
00:35 11,8 6,5 9,3 70,0 1,0 16 - 0,0 0 1.017,9
00:34 11,8 6,5 9,3 70,0 1,1 118 - 0,0 0 1.017,9
00:33 11,8 6,5 9,3 70,0 1,7 148 - 0,0 0 1.017,9
00:32 11,8 6,6 9,3 70,0 1,9 203 - 0,0 0 1.017,9
00:31 11,8 6,6 9,3 70,0 2,1 114 - 0,0 0 1.017,9
00:30 11,9 6,6 9,4 70,0 2,4 134 - 0,0 0 1.018,0
00:29 11,9 6,7 9,4 70,0 1,5 97 - 0,0 0 1.018,0
00:28 11,9 6,7 9,4 70,0 1,1 7 - 0,0 0 1.017,9
00:27 11,9 6,7 9,4 70,0 0,6 95 - 0,0 0 1.017,9
00:26 12,0 6,7 9,5 70,0 1,4 170 - 0,0 0 1.018,0
00:25 12,0 6,8 9,5 70,0 1,1 99 - 0,0 0 1.018,0
00:24 12,1 6,8 9,6 70,0 1,1 220 - 0,0 0 1.017,9
00:23 12,1 6,7 9,5 69,7 1,5 168 - 0,0 0 1.017,9
00:22 12,1 6,7 9,5 69,0 1,6 95 - 0,0 0 1.017,9
00:21 12,1 6,8 9,6 69,7 1,1 225 - 0,0 0 1.017,9
00:20 12,1 6,7 9,5 69,2 1,1 120 - 0,0 0 1.017,9
00:19 12,2 6,7 9,5 69,0 0,7 249 - 0,0 0 1.017,9
00:18 12,2 6,7 9,6 69,0 1,5 97 - 0,0 0 1.018,0
00:17 12,2 6,7 9,6 69,0 2,8 81 - 0,0 0 1.018,0
00:16 12,2 6,8 9,6 69,0 2,6 86 - 0,0 0 1.017,9
00:15 12,2 6,8 9,6 69,0 2,6 144 - 0,0 0 1.017,9
00:14 12,2 6,8 9,6 69,0 2,7 103 - 0,0 0 1.017,9
00:13 12,3 6,8 9,6 69,0 1,5 99 - 0,0 0 1.017,9
00:12 12,3 6,8 9,7 69,0 0,7 279 - 0,0 0 1.017,8
00:11 12,3 6,9 9,7 69,0 1,4 76 - 0,0 0 1.017,9
00:10 12,3 6,9 9,7 69,0 2,0 26 - 0,0 0 1.017,9
00:09 12,3 6,9 9,7 69,0 1,9 124 - 0,0 0 1.017,9
00:08 12,4 6,9 9,7 69,0 1,4 105 - 0,0 0 1.017,9
00:07 12,4 6,9 9,8 69,0 0,7 291 - 0,0 0 1.017,9
00:06 12,4 7,0 9,8 69,0 1,9 246 - 0,0 0 1.017,9
00:05 12,5 7,0 9,8 69,0 1,3 199 - 0,0 0 1.017,8
00:04 12,5 7,0 9,9 69,0 1,1 111 - 0,0 0 1.017,9
00:03 12,5 7,1 9,9 69,0 1,0 285 - 0,0 0 1.017,9
00:02 12,5 7,1 9,9 69,0 0,5 137 - 0,0 0 1.017,9
00:01 12,6 7,1 9,9 69,0 1,4 8 - 0,0 0 1.017,9
00:00 12,6 7,1 9,9 69,0 2,5 98 - 0,0 0 1.017,9
 
23:59 12,6 7,1 10,0 69,0 3,2 86 - 0,0 0 1.017,9
23:58 12,6 7,1 10,0 69,0 3,3 99 - 0,0 0 1.017,9
23:57 12,7 7,2 10,0 69,0 2,8 88 - 0,0 0 1.017,9
23:56 12,7 7,2 10,0 69,0 2,4 99 - 0,0 0 1.017,9
23:55 12,7 7,2 10,0 69,0 2,4 118 - 0,0 0 1.017,9
23:54 12,7 7,2 10,1 69,0 2,6 103 - 0,0 0 1.017,9
23:53 12,7 7,2 10,1 69,0 2,4 91 - 0,0 0 1.017,9
23:52 12,7 7,3 10,1 69,0 2,2 92 - 0,0 0 1.017,8
23:51 12,7 7,2 10,1 69,0 2,3 81 - 0,0 0 1.017,9
23:50 12,8 7,3 10,1 69,0 2,4 85 - 0,0 0 1.017,9
23:49 12,8 7,2 10,1 68,8 1,9 97 - 0,0 0 1.017,9
23:48 12,8 7,1 10,0 68,0 1,4 112 - 0,0 0 1.017,8
23:47 12,8 7,1 10,0 68,0 0,9 83 - 0,0 0 1.017,8
23:46 12,8 7,1 10,0 68,0 1,0 159 - 0,0 0 1.017,8
23:45 12,8 7,1 10,0 68,0 1,6 89 - 0,0 0 1.017,8
23:44 12,8 7,1 10,0 68,0 2,0 93 - 0,0 0 1.017,8
23:43 12,8 7,1 10,1 68,0 1,5 126 - 0,0 0 1.017,8
23:42 12,8 7,1 10,1 68,0 1,3 174 - 0,0 0 1.017,8
23:41 12,8 7,1 10,1 68,0 1,6 129 - 0,0 0 1.017,8
23:40 12,8 7,2 10,1 68,0 1,7 103 - 0,0 0 1.017,8
23:39 12,9 7,2 10,1 68,0 1,4 101 - 0,0 0 1.017,8
23:38 12,9 7,2 10,1 68,0 1,3 126 - 0,0 0 1.017,8
23:37 12,9 7,2 10,1 68,0 1,3 121 - 0,0 0 1.017,8
23:36 12,9 7,2 10,1 68,0 1,5 146 - 0,0 0 1.017,9
23:35 12,9 7,2 10,1 68,0 1,8 120 - 0,0 0 1.017,8
23:34 12,9 7,2 10,1 68,0 2,2 105 - 0,0 0 1.017,8
23:33 12,9 7,2 10,1 68,0 2,3 97 - 0,0 0 1.017,9
23:32 12,9 7,2 10,1 68,0 2,3 108 - 0,0 0 1.017,8
23:31 12,9 7,2 10,1 68,0 2,0 91 - 0,0 0 1.017,8
23:30 12,9 7,2 10,1 68,0 1,7 90 - 0,0 0 1.017,8
23:29 12,9 7,2 10,2 68,0 1,4 78 - 0,0 0 1.017,8
23:28 12,9 7,2 10,2 68,0 1,3 132 - 0,0 0 1.017,8
23:27 12,9 7,2 10,2 68,0 1,2 176 - 0,0 0 1.017,8
23:26 12,9 7,2 10,2 68,0 1,0 224 - 0,0 0 1.017,7
23:25 12,9 7,2 10,2 68,0 0,8 95 - 0,0 0 1.017,8
23:24 13,0 7,3 10,2 68,0 0,4 241 - 0,0 0 1.017,8
23:23 13,0 7,3 10,2 68,0 1,2 265 - 0,0 0 1.017,8
23:22 13,0 7,3 10,2 68,0 1,1 301 - 0,0 0 1.017,8
23:21 13,0 7,3 10,2 68,0 0,5 261 - 0,0 0 1.017,8
23:20 13,0 7,3 10,2 68,0 0,7 122 - 0,0 0 1.017,8
23:19 13,0 7,3 10,2 68,0 1,2 82 - 0,0 0 1.017,8
23:18 13,0 7,3 10,2 68,0 1,8 199 - 0,0 0 1.017,8
23:17 13,1 7,4 10,3 68,0 2,5 186 - 0,0 0 1.017,8
23:16 13,0 7,3 10,3 68,0 2,3 122 - 0,0 0 1.017,8
23:15 13,0 7,3 10,3 68,0 2,2 93 - 0,0 0 1.017,8
23:14 13,0 7,5 10,4 69,0 1,7 168 - 0,0 0 1.017,8
23:13 13,1 7,6 10,4 69,0 1,5 100 - 0,0 0 1.017,8
23:12 13,1 7,6 10,4 69,0 0,6 95 - 0,0 0 1.017,8
23:11 13,1 7,6 10,4 69,0 0,6 294 - 0,0 0 1.017,8
23:10 13,1 7,6 10,4 69,0 1,5 101 - 0,0 0 1.017,8
23:09 13,1 7,6 10,4 69,0 2,0 95 - 0,0 0 1.017,8
23:08 13,1 7,6 10,4 69,0 1,1 183 - 0,0 0 1.017,8
23:07 13,1 7,6 10,4 69,0 1,1 270 - 0,0 0 1.017,8
23:06 13,1 7,6 10,5 69,0 0,6 283 - 0,0 0 1.017,8
23:05 13,1 7,6 10,4 69,0 1,9 129 - 0,0 0 1.017,8
23:04 13,1 7,7 10,5 69,0 2,8 112 - 0,0 0 1.017,8
23:03 13,2 7,7 10,5 69,0 1,3 87 - 0,0 0 1.017,7
23:02 13,2 7,7 10,5 69,2 1,3 219 - 0,0 0 1.017,8
23:01 13,2 7,9 10,6 70,0 1,9 102 - 0,0 0 1.017,7
23:00 13,2 7,9 10,6 70,0 1,5 102 - 0,0 0 1.017,7
 
22:59 13,2 7,9 10,6 70,0 1,1 269 - 0,0 0 1.017,7
22:58 13,2 7,9 10,6 70,0 1,4 159 - 0,0 0 1.017,7
22:57 13,2 7,9 10,6 70,0 1,7 95 - 0,0 0 1.017,7
22:56 13,2 7,9 10,6 70,0 0,4 189 - 0,0 0 1.017,7
22:55 13,2 7,9 10,6 70,0 0,6 359 - 0,0 0 1.017,7
22:54 13,2 7,9 10,6 70,0 1,6 143 - 0,0 0 1.017,7
22:53 13,2 7,9 10,6 70,0 2,1 82 - 0,0 0 1.017,7
22:52 13,2 7,9 10,6 70,0 1,7 91 - 0,0 0 1.017,7
22:51 13,2 7,9 10,6 70,0 0,7 152 - 0,0 0 1.017,7
22:50 13,2 7,9 10,6 70,0 0,8 350 - 0,0 0 1.017,7
22:49 13,1 7,9 10,6 70,0 1,9 118 - 0,0 0 1.017,7
22:48 13,1 7,8 10,6 70,0 2,7 95 - 0,0 0 1.017,7
22:47 13,1 7,8 10,5 70,0 2,0 101 - 0,0 0 1.017,7
22:46 13,1 7,8 10,5 70,0 1,4 133 - 0,0 0 1.017,7
22:45 13,1 7,8 10,5 70,0 1,8 85 - 0,0 0 1.017,7
22:44 13,1 7,8 10,5 70,0 2,5 113 - 0,0 0 1.017,7
22:43 13,1 7,8 10,5 70,0 2,5 105 - 0,0 0 1.017,7
22:42 13,1 7,8 10,5 70,0 2,3 79 - 0,0 0 1.017,6
22:41 13,0 7,8 10,5 70,0 2,2 113 - 0,0 0 1.017,6
22:40 13,0 7,8 10,5 70,0 2,2 88 - 0,0 0 1.017,6
22:39 13,0 7,7 10,5 70,0 2,1 109 - 0,0 0 1.017,6
22:38 13,0 7,7 10,4 70,0 2,2 134 - 0,0 0 1.017,6
22:37 13,0 7,7 10,4 70,0 2,5 103 - 0,0 0 1.017,6
22:36 13,0 7,7 10,4 70,0 2,6 111 - 0,0 0 1.017,6
22:35 13,0 7,7 10,4 70,0 2,4 97 - 0,0 0 1.017,6
22:34 13,0 7,7 10,4 70,0 2,0 137 - 0,0 0 1.017,6
22:33 12,9 7,7 10,4 70,0 1,8 97 - 0,0 0 1.017,6
22:32 13,0 7,7 10,4 70,0 2,0 87 - 0,0 0 1.017,6
22:31 12,9 7,7 10,4 70,0 2,4 97 - 0,0 0 1.017,6
22:30 13,0 7,6 10,3 69,4 2,4 101 - 0,0 0 1.017,6
22:29 12,9 7,5 10,3 69,0 2,1 90 - 0,0 0 1.017,6
22:28 12,9 7,5 10,3 69,0 1,7 72 - 0,0 0 1.017,6
22:27 12,9 7,5 10,3 69,0 1,9 84 - 0,0 0 1.017,6
22:26 12,9 7,5 10,3 69,0 2,4 83 - 0,0 0 1.017,6
22:25 12,9 7,5 10,3 69,0 2,8 96 - 0,0 0 1.017,6
22:24 13,0 7,5 10,3 69,0 3,0 84 - 0,0 0 1.017,6
22:23 13,0 7,5 10,3 69,0 2,8 88 - 0,0 0 1.017,5
22:22 13,0 7,5 10,3 69,0 2,6 91 - 0,0 0 1.017,5
22:21 13,0 7,5 10,3 69,0 2,3 92 - 0,0 0 1.017,5
22:20 13,0 7,5 10,3 69,0 2,3 84 - 0,0 0 1.017,5
22:19 13,0 7,5 10,3 69,0 2,2 64 - 0,0 0 1.017,5
22:18 13,0 7,5 10,3 69,0 2,3 100 - 0,0 0 1.017,5
22:17 13,0 7,5 10,3 69,0 2,4 89 - 0,0 0 1.017,4
22:16 13,0 7,5 10,3 69,0 2,6 88 - 0,0 0 1.017,4
22:15 13,0 7,5 10,3 69,0 2,7 77 - 0,0 0 1.017,4
22:14 13,0 7,5 10,3 69,0 2,5 79 - 0,0 0 1.017,4
22:13 13,1 7,6 10,4 69,0 2,5 88 - 0,0 0 1.017,4
22:12 13,0 7,6 10,4 69,0 2,8 73 - 0,0 0 1.017,4
22:11 13,0 7,6 10,4 69,0 2,7 76 - 0,0 0 1.017,3
22:10 13,1 7,6 10,4 69,0 1,7 89 - 0,0 0 1.017,3
22:09 13,1 7,6 10,4 69,0 1,4 56 - 0,0 0 1.017,3
22:08 13,0 7,5 10,4 69,0 2,0 85 - 0,0 0 1.017,3
22:07 13,1 7,6 10,4 69,0 2,2 88 - 0,0 0 1.017,3
22:06 13,1 7,6 10,4 69,0 2,3 82 - 0,0 0 1.017,3
22:05 13,1 7,6 10,4 69,0 2,2 92 - 0,0 0 1.017,2
22:04 13,1 7,6 10,4 69,0 2,4 99 - 0,0 0 1.017,2
22:03 13,1 7,6 10,4 69,0 2,2 68 - 0,0 0 1.017,2
22:02 13,1 7,6 10,4 69,0 2,2 84 - 0,0 0 1.017,2
22:01 13,1 7,6 10,4 69,0 2,1 65 - 0,0 0 1.017,2
22:00 13,1 7,6 10,4 69,0 2,1 58 - 0,0 0 1.017,2
 
21:59 13,1 7,4 10,3 68,2 1,9 74 - 0,0 0 1.017,2
21:58 13,1 7,4 10,3 68,0 1,7 97 - 0,0 0 1.017,2
21:57 13,1 7,4 10,3 68,0 1,5 53 - 0,0 0 1.017,2
21:56 13,1 7,4 10,3 68,0 1,5 71 - 0,0 0 1.017,2
21:55 13,1 7,4 10,3 68,0 1,4 91 - 0,0 0 1.017,2
21:54 13,1 7,4 10,3 68,0 1,7 61 - 0,0 0 1.017,2
21:53 13,1 7,4 10,3 68,0 2,1 61 - 0,0 0 1.017,2
21:52 13,2 7,5 10,4 68,0 2,8 51 - 0,0 0 1.017,2
21:50 13,2 7,5 10,4 68,0 3,3 76 - 0,0 0 1.017,2
21:49 13,2 7,5 10,4 68,0 3,1 71 - 0,0 0 1.017,1
21:48 13,2 7,5 10,4 68,0 2,4 55 - 0,0 0 1.017,1
21:47 13,2 7,3 10,3 67,1 2,4 51 - 0,0 0 1.017,1
21:46 13,2 7,3 10,3 67,0 2,7 45 - 0,0 0 1.017,1
21:45 13,3 7,3 10,3 67,0 2,8 59 - 0,0 0 1.017,2
21:44 13,2 7,3 10,3 67,0 2,3 75 - 0,0 0 1.017,1
21:43 13,3 7,3 10,3 67,0 1,9 76 - 0,0 0 1.017,1
21:42 13,3 7,3 10,3 67,0 1,8 74 - 0,0 0 1.017,1
21:41 13,3 7,4 10,4 67,0 1,9 61 - 0,0 0 1.017,1
21:40 13,3 7,4 10,4 67,0 1,9 37 - 0,0 0 1.017,1
21:39 13,3 7,4 10,4 67,0 2,0 59 - 0,0 0 1.017,1
21:38 13,3 7,4 10,4 67,0 2,2 82 - 0,0 0 1.017,1
21:37 13,3 7,4 10,4 67,0 2,3 62 - 0,0 0 1.017,1
21:36 13,3 7,4 10,4 67,0 2,1 82 - 0,0 0 1.017,0
21:35 13,3 7,4 10,4 67,0 1,9 48 - 0,0 0 1.017,0
21:34 13,3 7,4 10,4 67,0 1,9 62 - 0,0 0 1.017,1
21:33 13,4 7,4 10,4 67,0 1,9 66 - 0,0 0 1.017,0
21:32 13,4 7,3 10,4 66,5 1,9 57 - 0,0 0 1.017,0
21:31 13,4 7,3 10,4 66,0 2,1 79 - 0,0 0 1.017,1
21:30 13,4 7,3 10,4 66,0 2,5 60 - 0,0 0 1.017,0
21:29 13,4 7,3 10,4 66,0 2,9 39 - 0,0 0 1.017,0
21:28 13,5 7,3 10,4 66,0 2,8 80 - 0,0 0 1.017,0
21:27 13,5 7,3 10,4 66,0 2,6 45 - 0,0 0 1.017,0
21:26 13,5 7,3 10,4 66,0 2,7 65 - 0,0 0 1.017,0
21:25 13,5 7,4 10,5 66,0 2,8 40 - 0,0 0 1.017,0
21:24 13,6 7,4 10,5 66,0 2,5 63 - 0,0 0 1.017,0
21:23 13,6 7,4 10,5 66,0 2,2 16 - 0,0 0 1.017,0
21:22 13,6 7,4 10,5 66,0 2,1 72 - 0,0 0 1.017,0
21:21 13,6 7,4 10,5 66,0 2,2 53 - 0,0 0 1.016,9
21:20 13,6 7,5 10,6 66,0 2,6 40 - 0,0 0 1.016,9
21:19 13,6 7,5 10,6 66,0 3,0 39 - 0,0 0 1.016,8
21:18 13,7 7,5 10,6 66,0 2,7 35 - 0,0 0 1.016,8
21:17 13,7 7,3 10,5 65,1 2,2 51 - 0,0 0 1.016,8
21:16 13,7 7,3 10,5 65,0 2,1 67 - 0,0 0 1.016,8
21:15 13,7 7,3 10,5 65,0 2,4 36 - 0,0 0 1.016,8
21:14 13,7 7,3 10,5 65,0 2,6 33 - 0,0 1 1.016,8
21:13 13,8 7,4 10,6 65,0 2,6 31 - 0,0 5 1.016,8
21:12 13,8 7,2 10,5 64,1 2,5 62 - 0,0 5 1.016,8
21:11 13,8 7,2 10,5 64,0 2,6 66 - 0,0 5 1.016,9
21:10 13,9 7,2 10,5 64,0 2,7 39 - 0,0 5 1.016,9
21:09 13,9 7,2 10,5 64,0 3,0 65 - 0,0 5 1.016,8
21:08 13,9 7,3 10,6 64,0 3,5 33 - 0,0 5 1.016,8
21:07 13,9 7,3 10,6 64,0 4,0 41 - 0,0 7 1.016,8
21:06 13,9 7,3 10,6 64,0 4,0 25 - 0,0 7 1.016,7
21:05 14,0 7,1 10,5 63,0 3,7 36 - 0,0 7 1.016,7
21:04 14,0 7,1 10,5 63,0 3,5 17 - 0,0 7 1.016,7
21:03 14,0 7,1 10,5 63,0 3,4 63 - 0,0 9 1.016,7
21:02 14,0 7,1 10,5 63,0 3,1 23 - 0,0 9 1.016,7
21:01 14,0 7,2 10,6 63,0 3,3 36 - 0,0 9 1.016,7
21:00 14,0 7,1 10,6 62,8 3,7 39 - 0,0 10 1.016,7
 
20:59 14,1 7,0 10,5 62,0 3,8 55 - 0,0 11 1.016,7
20:58 14,1 7,0 10,5 62,0 3,5 39 - 0,0 11 1.016,7
20:57 14,1 7,0 10,5 62,0 3,4 44 - 0,0 11 1.016,7
20:56 14,1 7,0 10,5 62,0 3,3 59 - 0,0 12 1.016,8
20:55 14,1 7,0 10,5 62,0 3,1 45 - 0,0 12 1.016,8
20:54 14,1 7,0 10,5 62,0 3,2 30 - 0,0 12 1.016,7
20:53 14,1 7,0 10,5 62,0 3,3 55 - 0,0 13 1.016,7
20:52 14,2 7,1 10,6 62,0 3,4 52 - 0,0 14 1.016,7
20:51 14,2 7,1 10,6 62,0 3,4 39 - 0,0 14 1.016,7
20:50 14,2 7,1 10,6 62,0 3,6 34 - 0,0 16 1.016,7
20:49 14,2 6,9 10,5 61,2 3,6 34 - 0,0 16 1.016,7
20:48 14,2 6,8 10,5 61,0 3,5 31 - 0,0 16 1.016,7
20:47 14,2 6,9 10,5 61,3 3,6 43 - 0,0 17 1.016,7
20:46 14,2 7,0 10,5 61,6 3,9 26 - 0,0 18 1.016,6
20:45 14,2 6,9 10,5 61,0 4,1 13 - 0,0 18 1.016,6
20:44 14,2 6,9 10,5 61,0 3,7 39 - 0,0 18 1.016,6
20:43 14,2 6,9 10,5 61,0 3,3 52 - 0,0 20 1.016,6
20:42 14,2 6,9 10,5 61,0 3,3 76 - 0,0 21 1.016,6
20:41 14,2 6,9 10,5 61,0 3,4 46 - 0,0 22 1.016,6
20:40 14,3 6,9 10,5 61,0 3,6 39 - 0,0 21 1.016,6
20:39 14,2 6,9 10,5 61,0 3,5 50 - 0,0 21 1.016,6
20:38 14,2 6,9 10,5 61,0 3,5 59 - 0,0 21 1.016,5
20:37 14,2 6,9 10,5 61,0 3,6 27 - 0,0 19 1.016,5
20:36 14,2 6,9 10,5 61,0 3,9 59 - 0,0 21 1.016,6
20:35 14,2 6,9 10,5 61,0 4,0 36 - 0,0 24 1.016,5
20:34 14,2 7,0 10,6 61,5 4,0 46 - 0,0 27 1.016,5
20:33 14,2 7,1 10,6 62,0 3,8 52 - 0,0 32 1.016,5
20:32 14,2 7,1 10,6 62,0 3,6 34 - 0,0 32 1.016,5
20:31 14,2 7,1 10,6 62,0 3,4 39 - 0,0 34 1.016,5
20:30 14,2 7,1 10,6 62,0 3,6 32 - 0,0 36 1.016,5
20:29 14,2 7,1 10,6 62,0 4,0 42 - 0,0 37 1.016,4
20:28 14,2 7,1 10,6 62,0 4,2 40 - 0,0 36 1.016,4
20:27 14,2 7,1 10,6 62,0 4,1 39 - 0,0 40 1.016,5
20:26 14,2 7,1 10,6 62,0 3,9 42 - 0,0 38 1.016,5
20:25 14,2 7,2 10,6 62,2 3,9 46 - 0,0 32 1.016,5
20:24 14,3 7,5 10,8 63,2 4,1 43 - 0,0 31 1.016,5
20:23 14,3 7,6 10,9 64,0 3,9 49 - 0,0 32 1.016,4
20:22 14,3 7,8 11,0 64,5 3,4 57 - 0,0 33 1.016,4
20:21 14,3 7,9 11,1 65,0 2,8 67 - 0,0 35 1.016,4
20:20 14,3 8,1 11,2 65,8 2,3 70 - 0,0 36 1.016,4
20:19 14,4 8,2 11,3 66,0 2,2 30 - 0,0 37 1.016,4
20:18 14,4 8,2 11,3 66,0 2,7 32 - 0,0 37 1.016,4
20:17 14,4 8,3 11,3 66,4 3,1 39 - 0,0 37 1.016,4
20:16 14,4 8,5 11,4 67,0 2,9 45 - 0,0 39 1.016,3
20:15 14,4 8,3 11,3 66,3 2,7 64 - 0,0 39 1.016,3
20:14 14,4 8,2 11,3 66,0 2,8 45 - 0,0 39 1.016,4
20:13 14,4 8,2 11,3 66,0 3,1 24 - 0,0 39 1.016,4
20:12 14,4 8,2 11,3 66,0 3,1 21 - 0,0 40 1.016,4
20:11 14,4 8,2 11,3 65,6 3,1 39 - 0,0 40 1.016,3
20:10 14,4 8,0 11,2 65,0 3,1 33 - 0,0 40 1.016,3
20:09 14,4 8,0 11,2 65,0 3,4 355 - 0,0 40 1.016,3
20:08 14,4 8,0 11,2 65,0 3,6 9 - 0,0 40 1.016,3
20:07 14,4 7,8 11,1 64,0 3,5 20 - 0,0 40 1.016,3
20:06 14,5 7,8 11,1 64,0 3,0 355 - 0,0 40 1.016,3
20:05 14,5 7,8 11,1 64,0 3,4 75 - 0,0 39 1.016,3
20:04 14,5 7,9 11,1 64,0 4,2 51 - 0,0 40 1.016,4
20:03 14,6 7,9 11,2 64,0 4,4 16 - 0,0 40 1.016,4
20:02 14,6 7,9 11,2 64,0 4,6 48 - 0,0 41 1.016,4
20:01 14,6 8,2 11,4 65,0 4,3 55 - 0,0 42 1.016,4
20:00 14,7 8,2 11,4 65,0 3,4 43 - 0,0 42 1.016,4
 
19:59 14,7 8,2 11,4 65,0 2,9 12 - 0,0 42 1.016,4
19:58 14,7 8,1 11,3 64,5 2,9 345 - 0,0 42 1.016,4
19:57 14,7 8,0 11,3 64,0 3,0 49 - 0,0 42 1.016,4
19:56 14,7 7,8 11,2 63,2 3,3 39 - 0,0 42 1.016,4
19:55 14,7 7,8 11,1 63,0 2,4 9 - 0,0 42 1.016,4
19:54 14,7 7,7 11,1 62,7 2,3 129 - 0,0 42 1.016,4
19:53 14,7 7,6 11,1 62,0 3,4 45 - 0,0 44 1.016,4
19:52 14,8 7,8 11,2 62,6 3,7 66 - 0,0 44 1.016,4
19:51 14,8 7,7 11,1 62,3 3,1 20 - 0,0 44 1.016,4
19:50 14,8 7,6 11,1 62,0 2,7 33 - 0,0 46 1.016,4
19:49 14,8 7,7 11,1 62,0 2,6 28 - 0,0 47 1.016,4
19:48 14,8 7,6 11,1 61,7 2,5 27 - 0,0 47 1.016,3
19:47 14,8 7,5 11,0 61,0 2,9 88 - 0,0 47 1.016,3
19:46 14,9 7,6 11,2 61,6 3,5 23 - 0,0 47 1.016,3
19:45 14,9 7,8 11,2 62,0 3,7 34 - 0,0 47 1.016,3
19:44 14,9 7,6 11,1 61,1 2,9 32 - 0,0 48 1.016,3
19:43 14,9 7,4 11,1 60,7 2,7 332 - 0,0 49 1.016,3
19:42 14,9 7,3 11,0 60,0 3,0 5 - 0,0 50 1.016,3
19:41 14,9 7,4 11,1 60,5 2,8 3 - 0,0 51 1.016,3
19:40 14,9 7,4 11,1 60,4 2,5 18 - 0,0 53 1.016,3
19:39 14,9 7,3 11,0 60,0 2,4 24 - 0,0 55 1.016,3
19:38 15,0 7,3 11,0 60,0 2,5 43 - 0,0 56 1.016,2
19:37 15,0 7,3 11,0 59,8 2,7 67 - 0,0 57 1.016,2
19:36 15,0 7,1 10,9 59,0 3,0 30 - 0,0 58 1.016,3
19:35 15,0 7,1 10,9 59,0 3,6 6 - 0,0 60 1.016,3
19:34 15,0 7,1 10,9 59,0 3,9 21 - 0,0 60 1.016,3
19:33 15,0 6,9 10,8 58,2 4,2 35 - 0,0 62 1.016,3
19:32 15,0 6,9 10,8 58,0 4,1 14 - 0,0 63 1.016,2
19:31 15,1 6,9 10,8 58,0 4,0 35 - 0,0 64 1.016,2
19:30 15,1 6,9 10,9 58,0 4,0 27 - 0,0 65 1.016,2
19:29 15,1 7,0 10,9 58,0 3,5 22 - 0,0 67 1.016,2
19:28 15,1 7,1 11,0 58,7 3,6 324 - 0,0 67 1.016,1
19:27 15,1 7,4 11,1 59,8 3,3 18 - 0,0 69 1.016,1
19:26 15,2 7,5 11,2 60,0 3,3 36 - 0,0 69 1.016,1
19:25 15,2 7,4 11,2 59,8 3,3 57 - 0,0 70 1.016,1
19:24 15,2 7,3 11,1 59,0 3,1 56 - 0,0 70 1.016,1
19:23 15,2 7,3 11,1 59,0 3,4 350 - 0,0 72 1.016,1
19:22 15,2 7,5 11,2 59,9 3,6 50 - 0,0 72 1.016,1
19:21 15,2 7,5 11,2 60,0 3,6 3 - 0,0 74 1.016,1
19:20 15,2 7,5 11,2 59,9 3,2 42 - 0,0 74 1.016,2
19:19 15,2 7,3 11,1 59,0 3,1 9 - 0,0 73 1.016,2
19:18 15,2 7,3 11,1 59,0 3,4 350 - 0,0 72 1.016,1
19:17 15,2 7,1 11,0 58,5 3,3 325 - 0,0 72 1.016,2
19:16 15,2 7,2 11,0 58,7 3,4 33 - 0,0 72 1.016,3
19:15 15,2 7,3 11,1 59,0 3,4 2 - 0,0 72 1.016,3
19:14 15,2 7,3 11,1 59,0 2,9 59 - 0,0 73 1.016,3
19:13 15,2 7,2 11,1 58,7 2,9 345 - 0,0 74 1.016,3
19:12 15,2 7,1 11,0 58,0 3,8 339 - 0,0 74 1.016,3
19:11 15,2 7,2 11,1 58,6 3,8 341 - 0,0 76 1.016,3
19:10 15,2 7,1 11,0 58,3 3,3 5 - 0,0 76 1.016,3
19:09 15,2 7,1 11,0 58,0 3,3 41 - 0,0 76 1.016,3
19:08 15,2 7,1 11,0 58,0 3,3 11 - 0,0 76 1.016,4
19:07 15,2 7,1 11,0 58,0 3,2 29 - 0,0 76 1.016,3
19:06 15,3 7,1 11,0 58,0 3,1 24 - 0,0 77 1.016,3
19:05 15,3 6,9 10,9 57,4 2,8 36 - 0,0 79 1.016,3
19:04 15,3 6,9 10,9 57,0 2,9 345 - 0,0 82 1.016,2
19:03 15,3 7,1 11,0 58,0 3,1 3 - 0,0 83 1.016,2
19:02 15,3 7,4 11,2 59,0 2,9 8 - 0,0 86 1.016,2
19:01 15,3 7,4 11,2 59,0 2,9 53 - 0,0 89 1.016,2
19:00 15,3 7,4 11,2 59,0 3,3 16 - 0,0 92 1.016,2
 
18:59 15,3 7,4 11,2 59,0 3,7 5 - 0,0 97 1.016,2
18:58 15,4 7,5 11,3 59,0 3,3 359 - 0,0 101 1.016,2
18:57 15,4 7,5 11,3 59,0 3,3 60 - 0,0 105 1.016,2
18:56 15,4 7,5 11,3 59,0 3,8 355 - 0,0 112 1.016,2
18:55 15,4 7,5 11,3 59,0 4,7 345 - 0,0 115 1.016,3
18:54 15,5 7,6 11,4 59,0 4,6 345 - 0,0 116 1.016,2
18:53 15,5 7,6 11,4 59,0 4,4 334 - 0,0 120 1.016,2
18:52 15,5 7,6 11,4 59,0 4,0 345 - 0,0 122 1.016,2
18:51 15,6 7,6 11,4 58,8 4,0 345 - 0,0 126 1.016,2
18:50 15,6 7,3 11,2 57,8 3,7 345 - 0,0 128 1.016,2
18:49 15,6 7,3 11,2 57,6 3,3 332 - 0,0 128 1.016,2
18:48 15,6 7,4 11,3 58,0 3,0 345 - 0,0 128 1.016,1
18:47 15,6 7,4 11,3 58,0 3,2 355 - 0,0 128 1.016,1
18:46 15,6 7,4 11,3 58,0 3,1 336 - 0,0 129 1.016,1
18:45 15,6 7,4 11,3 58,0 2,9 9 - 0,0 142 1.016,1
18:44 15,5 7,3 11,2 57,8 2,7 7 - 0,0 163 1.016,1
18:43 15,6 7,1 11,1 57,0 2,8 359 - 0,0 148 1.016,2
18:42 15,6 7,1 11,2 57,0 2,9 355 - 0,0 142 1.016,2
18:41 15,6 7,3 11,2 57,7 2,9 16 - 0,0 144 1.016,1
18:40 15,6 7,2 11,2 57,2 3,1 335 - 0,0 147 1.016,1
18:39 15,6 7,2 11,2 57,2 3,5 355 - 0,0 150 1.016,2
18:38 15,6 7,5 11,3 58,3 3,6 355 - 0,0 153 1.016,2
18:37 15,6 7,6 11,4 59,0 3,5 359 - 0,0 156 1.016,2
18:36 15,6 7,5 11,4 58,5 3,4 359 - 0,0 160 1.016,2
18:35 15,6 7,6 11,4 58,7 3,2 340 - 0,0 164 1.016,2
18:34 15,6 7,5 11,3 58,2 3,1 332 - 0,0 170 1.016,2
18:33 15,6 7,4 11,3 58,0 3,3 345 - 0,0 167 1.016,2
18:32 15,6 7,4 11,3 57,7 3,6 330 - 0,0 167 1.016,2
18:31 15,7 7,3 11,3 57,5 3,8 319 - 0,0 169 1.016,2
18:30 15,7 7,5 11,4 58,0 3,8 345 - 0,0 172 1.016,2
18:29 15,7 7,3 11,3 57,3 3,7 308 - 0,0 177 1.016,2
18:28 15,7 7,3 11,3 57,1 3,6 340 - 0,0 180 1.016,2
18:27 15,7 7,5 11,4 57,8 3,7 330 - 0,0 185 1.016,2
18:26 15,8 7,3 11,3 57,0 3,5 326 - 0,0 189 1.016,2
18:25 15,7 7,3 11,3 57,0 3,2 334 - 0,0 192 1.016,1
18:24 15,7 7,3 11,3 57,0 3,0 331 - 0,0 198 1.016,4
18:23 15,8 7,3 11,3 57,0 2,5 326 - 0,0 196 1.016,3
18:22 15,8 7,5 11,4 57,9 2,4 47 - 0,0 207 1.016,1
18:21 15,7 7,3 11,3 57,0 2,5 345 - 0,0 209 1.016,1
18:20 15,7 7,3 11,3 57,0 2,2 345 - 0,0 192 1.016,1
18:19 15,7 7,4 11,4 57,5 2,4 66 - 0,0 184 1.016,2
18:18 15,7 7,6 11,4 58,0 2,9 9 - 0,0 183 1.016,1
18:17 15,7 7,3 11,3 57,2 3,1 359 - 0,0 184 1.016,1
18:16 15,7 7,2 11,2 57,0 2,7 345 - 0,0 190 1.016,1
18:15 15,7 7,2 11,3 57,0 2,8 331 - 0,0 197 1.016,1
18:14 15,7 7,2 11,3 57,0 3,3 355 - 0,0 225 1.016,1
18:13 15,7 7,3 11,3 57,0 3,7 341 - 0,0 278 1.016,1
18:12 15,7 7,4 11,3 57,7 3,9 320 - 0,0 223 1.016,1
18:11 15,7 7,3 11,3 57,2 3,8 335 - 0,0 220 1.016,1
18:10 15,7 7,2 11,2 57,0 3,6 345 - 0,0 223 1.016,1
18:09 15,7 7,2 11,2 57,0 3,1 1 - 0,0 316 1.016,1
18:08 15,7 7,2 11,2 57,0 3,3 61 - 0,0 376 1.016,1
18:07 15,7 7,2 11,2 57,0 3,6 46 - 0,0 448 1.016,1
18:06 15,7 7,2 11,2 57,0 3,5 33 - 0,0 411 1.016,1
18:05 15,6 7,2 11,2 57,0 3,1 42 - 0,0 262 1.016,1
18:04 15,7 7,2 11,2 56,9 3,1 355 - 0,0 234 1.016,1
18:03 15,7 7,0 11,1 56,0 3,3 15 - 0,0 199 1.016,1
18:02 15,7 7,0 11,1 56,0 3,3 328 - 0,0 200 1.016,0
18:01 15,7 7,0 11,1 56,0 3,3 336 - 0,0 210 1.016,1
18:00 15,7 7,1 11,2 56,7 3,5 24 - 0,0 260 1.016,1
 
17:59 15,7 7,2 11,2 57,0 3,6 355 - 0,0 206 1.016,1
17:58 15,7 7,2 11,2 56,7 3,7 329 - 0,0 208 1.016,1
17:57 15,7 7,0 11,1 56,0 3,7 321 - 0,0 209 1.016,1
17:56 15,7 6,9 11,1 55,6 3,8 317 - 0,0 271 1.016,1
17:55 15,7 6,6 11,0 54,5 3,3 328 - 0,0 208 1.016,1
17:54 15,7 6,5 10,9 54,0 3,1 355 - 0,0 201 1.016,1
17:53 15,8 6,7 11,0 54,9 2,8 355 - 0,0 206 1.016,0
17:52 15,8 6,8 11,1 55,2 2,8 48 - 0,0 204 1.016,1
17:51 15,8 7,1 11,2 56,0 2,9 40 - 0,0 217 1.016,1
17:50 15,7 7,0 11,2 56,0 2,5 37 - 0,0 225 1.016,1
17:49 15,7 7,0 11,1 56,0 2,2 325 - 0,0 223 1.016,1
17:48 15,7 6,8 11,0 55,3 2,5 14 - 0,0 259 1.016,1
17:47 15,7 7,0 11,1 56,0 3,1 355 - 0,0 457 1.016,1
17:46 15,7 7,2 11,3 57,0 3,4 341 - 0,0 457 1.016,1
17:45 15,7 7,3 11,3 57,3 2,8 5 - 0,0 290 1.016,0
17:44 15,7 7,5 11,4 58,0 2,7 58 - 0,0 194 1.016,1
17:43 15,7 7,5 11,4 58,0 2,7 12 - 0,0 184 1.016,1
17:42 15,7 7,5 11,4 58,0 2,9 350 - 0,0 184 1.016,1
17:41 15,7 7,5 11,4 58,2 2,9 355 - 0,0 186 1.016,1
17:40 15,7 7,8 11,5 59,0 3,1 325 - 0,0 186 1.016,1
17:39 15,7 7,6 11,5 58,6 3,5 12 - 0,0 251 1.016,2
17:38 15,7 7,4 11,3 57,5 3,8 345 - 0,0 193 1.016,2
17:37 15,7 7,5 11,4 57,7 3,1 326 - 0,0 171 1.016,1
17:36 15,7 7,8 11,5 58,8 2,7 57 - 0,0 167 1.016,1
17:35 15,8 8,1 11,7 59,9 3,0 323 - 0,0 189 1.016,1
17:34 15,8 7,8 11,6 58,8 3,7 17 - 0,0 323 1.016,2
17:33 15,8 7,6 11,5 58,0 4,1 350 - 0,0 406 1.016,1
17:32 15,8 7,6 11,5 58,0 4,6 331 - 0,0 491 1.016,1
17:31 15,7 7,6 11,4 58,0 4,5 323 - 0,0 202 1.016,2
17:30 15,7 7,3 11,3 57,2 4,1 350 - 0,0 192 1.016,2
17:29 15,7 7,3 11,3 57,1 3,8 325 - 0,0 200 1.016,1
17:28 15,7 7,5 11,4 58,0 3,7 350 - 0,0 245 1.016,1
17:27 15,7 7,5 11,4 58,0 3,7 337 - 0,0 297 1.016,1
17:26 15,7 7,7 11,5 58,6 3,8 338 - 0,0 301 1.016,1
17:25 15,7 7,6 11,4 58,4 4,0 355 - 0,0 253 1.016,1
17:24 15,7 7,5 11,4 58,0 4,2 328 - 0,0 263 1.016,1
17:23 15,7 7,5 11,4 58,0 4,1 345 - 0,0 291 1.016,1
17:22 15,7 7,4 11,3 57,8 3,6 326 - 0,0 249 1.016,1
17:21 15,7 7,2 11,2 57,0 3,5 2 - 0,0 211 1.016,1
17:20 15,7 7,2 11,2 57,0 3,8 338 - 0,0 259 1.016,1
17:19 15,7 7,2 11,2 57,0 3,9 340 - 0,0 439 1.016,1
17:18 15,7 7,2 11,2 57,0 4,0 18 - 0,0 370 1.016,1
17:17 15,7 7,2 11,2 57,0 4,2 334 - 0,0 243 1.016,1
17:16 15,7 7,3 11,3 57,3 4,2 3 - 0,0 212 1.016,1
17:15 15,7 7,5 11,4 58,0 4,0 345 - 0,0 176 1.016,1
17:14 15,6 7,3 11,3 57,5 4,1 327 - 0,0 174 1.016,1
17:13 15,6 7,4 11,3 57,7 4,2 338 - 0,0 255 1.016,1
17:12 15,6 7,6 11,4 58,9 4,0 338 - 0,0 251 1.016,1
17:11 15,6 7,4 11,3 58,2 3,7 341 - 0,0 218 1.016,0
17:10 15,6 7,8 11,5 59,6 3,3 336 - 0,0 184 1.016,0
17:09 15,6 8,2 11,7 61,0 3,4 340 - 0,0 175 1.016,0
17:08 15,6 7,9 11,6 59,8 3,6 350 - 0,0 174 1.016,0
17:07 15,6 7,7 11,4 59,0 3,8 313 - 0,0 220 1.016,0
17:06 15,6 8,3 11,8 61,8 3,7 336 - 0,0 220 1.016,0
17:05 15,6 8,6 12,0 62,9 3,6 345 - 0,0 228 1.016,1
17:04 15,7 8,5 11,9 62,0 4,0 35 - 0,0 215 1.016,1
17:03 15,6 8,1 11,7 60,7 4,3 323 - 0,0 245 1.016,1
17:02 15,7 8,0 11,7 60,2 5,0 330 - 0,0 564 1.016,1
17:01 15,7 8,2 11,8 61,0 5,0 321 - 0,0 478 1.016,1
17:00 15,7 7,8 11,5 59,2 4,9 321 - 0,0 172 1.016,2
 
16:59 15,7 7,6 11,4 58,3 4,7 326 - 0,0 172 1.016,1
16:58 15,7 8,3 11,8 61,1 4,4 334 - 0,0 172 1.016,1
16:57 15,7 8,9 12,1 63,5 4,3 317 - 0,0 207 1.016,1
16:56 15,7 8,9 12,2 63,4 4,5 337 - 0,0 498 1.016,1
16:55 15,7 8,2 11,8 60,6 4,9 339 - 0,0 525 1.016,1
16:54 15,7 8,5 11,9 62,0 5,1 329 - 0,0 557 1.016,1
16:53 15,8 9,1 12,3 64,2 5,1 318 - 0,0 553 1.016,0
16:52 15,8 9,3 12,4 65,0 5,0 336 - 0,0 555 1.016,1
16:51 15,8 9,2 12,3 64,5 5,2 312 - 0,0 555 1.016,1
16:50 15,8 9,2 12,4 64,7 5,5 329 - 0,0 553 1.016,1
16:49 15,8 9,1 12,3 64,2 5,7 327 - 0,0 555 1.016,0
16:48 15,7 8,3 11,8 61,1 5,2 327 - 0,0 552 1.016,0
16:47 15,7 8,0 11,6 60,0 4,6 336 - 0,0 548 1.016,0
16:46 15,6 8,0 11,6 60,4 4,4 345 - 0,0 551 1.016,1
16:45 15,6 8,4 11,9 62,1 4,7 345 - 0,0 549 1.016,1
16:44 15,6 8,8 12,1 63,7 5,0 332 - 0,0 557 1.016,1
16:43 15,6 8,6 12,0 63,1 5,1 355 - 0,0 564 1.016,0
16:42 15,6 8,9 12,1 64,1 4,8 332 - 0,0 549 1.016,1
16:41 15,5 9,1 12,2 65,3 4,7 335 - 0,0 529 1.016,1
16:40 15,6 9,4 12,4 66,4 4,8 337 - 0,0 529 1.016,1
16:39 15,5 9,4 12,4 66,5 4,9 339 - 0,0 529 1.016,1
16:38 15,5 9,2 12,3 66,0 4,9 334 - 0,0 529 1.016,1
16:37 15,5 9,2 12,2 66,0 5,0 326 - 0,0 529 1.016,1
16:36 15,4 9,2 12,2 66,2 5,2 339 - 0,0 557 1.016,2
16:35 15,4 9,4 12,4 67,0 5,3 321 - 0,0 584 1.016,2
16:34 15,4 9,4 12,3 67,0 5,1 325 - 0,0 515 1.016,2
16:33 15,4 9,4 12,3 67,0 5,0 336 - 0,0 555 1.016,2
16:32 15,4 9,6 12,4 67,7 5,0 311 - 0,0 554 1.016,2
16:31 15,4 9,6 12,4 68,0 5,1 320 - 0,0 461 1.016,2
16:30 15,4 9,8 12,6 69,0 5,1 326 - 0,0 461 1.016,2
16:29 15,4 9,8 12,6 69,0 5,1 323 - 0,0 461 1.016,2
16:28 15,4 9,7 12,5 68,6 5,2 336 - 0,0 500 1.016,2
16:27 15,4 9,6 12,4 68,0 5,3 312 - 0,0 572 1.016,1
16:26 15,4 9,6 12,4 68,0 5,3 328 - 0,0 575 1.016,1
16:25 15,3 9,5 12,4 68,0 5,0 294 - 0,0 575 1.016,0
16:24 15,3 9,5 12,4 68,0 5,1 345 - 0,0 575 1.016,0
16:23 15,3 9,5 12,4 68,0 5,4 313 - 0,0 575 1.016,0
16:22 15,3 9,6 12,4 68,5 5,6 338 - 0,0 575 1.016,1
16:21 15,3 9,7 12,5 69,0 5,5 321 - 0,0 575 1.016,0
16:20 15,3 9,7 12,5 69,0 5,4 345 - 0,0 572 1.016,1
16:19 15,2 9,6 12,4 69,0 5,4 330 - 0,0 575 1.016,0
16:18 15,2 9,5 12,3 68,2 5,4 324 - 0,0 572 1.016,0
16:17 15,2 9,6 12,3 68,7 5,4 318 - 0,0 570 1.016,0
16:16 15,2 9,4 12,2 68,0 5,3 315 - 0,0 568 1.016,0
16:15 15,2 9,4 12,2 68,0 5,3 305 - 0,0 570 1.016,0
16:14 15,2 9,5 12,3 68,8 5,3 328 - 0,0 572 1.016,1
16:13 15,2 9,6 12,3 69,1 5,2 329 - 0,0 573 1.016,0
16:12 15,1 9,7 12,4 69,8 5,3 321 - 0,0 574 1.016,0
16:11 15,1 9,6 12,3 69,0 5,5 335 - 0,0 577 1.016,1
16:10 15,1 9,6 12,3 69,0 5,7 333 - 0,0 578 1.016,1
16:09 15,1 9,5 12,3 69,0 5,7 328 - 0,0 578 1.016,1
16:08 15,1 9,7 12,4 69,8 5,8 318 - 0,0 581 1.016,1
16:07 15,1 9,7 12,4 69,9 5,8 317 - 0,0 582 1.016,1
16:06 15,1 9,5 12,2 69,0 5,8 330 - 0,0 584 1.016,1
16:05 15,1 9,5 12,2 69,0 5,8 323 - 0,0 585 1.016,1
16:04 15,0 9,6 12,3 69,6 5,6 329 - 0,0 587 1.016,2
16:03 15,0 9,8 12,4 70,7 5,5 334 - 0,0 589 1.016,1
16:02 15,0 9,9 12,5 71,0 5,5 324 - 0,0 589 1.016,1
16:01 15,1 9,9 12,5 71,0 5,6 324 - 0,0 590 1.016,1
16:00 15,1 9,9 12,5 70,8 5,8 316 - 0,0 591 1.016,2
 
15:59 15,1 9,7 12,4 70,0 5,9 313 - 0,0 592 1.016,2
15:58 15,0 9,7 12,3 70,0 5,7 325 - 0,0 592 1.016,2
15:57 14,9 9,6 12,3 70,0 5,6 332 - 0,0 596 1.016,2
15:56 14,9 9,5 12,2 70,0 5,4 324 - 0,0 597 1.016,2
15:55 14,9 9,7 12,3 71,0 5,5 293 - 0,0 598 1.016,2
15:54 14,9 9,8 12,3 71,1 5,7 318 - 0,0 599 1.016,2
15:53 14,9 9,9 12,4 71,7 6,1 334 - 0,0 601 1.016,2
15:52 14,9 10,0 12,5 72,0 6,2 325 - 0,0 601 1.016,2
15:51 14,9 9,9 12,4 71,3 6,2 317 - 0,0 603 1.016,2
15:50 15,0 9,8 12,4 71,0 6,0 322 - 0,0 603 1.016,2
15:49 15,0 9,9 12,4 71,0 6,1 314 - 0,0 604 1.016,2
15:48 15,0 9,9 12,4 71,0 6,1 323 - 0,0 605 1.016,2
15:47 15,0 9,8 12,4 71,0 5,8 323 - 0,0 607 1.016,1
15:46 14,9 9,8 12,4 71,0 5,6 335 - 0,0 610 1.016,2
15:45 14,9 10,0 12,5 71,8 5,5 320 - 0,0 610 1.016,2
15:44 14,9 10,0 12,5 72,0 5,5 340 - 0,0 610 1.016,2
15:43 14,9 9,9 12,4 71,8 5,7 333 - 0,0 611 1.016,2
15:42 14,9 9,8 12,3 71,3 5,8 330 - 0,0 612 1.016,2
15:41 14,8 10,0 12,5 72,5 5,7 327 - 0,0 612 1.016,2
15:40 14,8 10,1 12,5 73,0 5,6 330 - 0,0 615 1.016,2
15:39 14,8 10,0 12,4 72,3 5,5 335 - 0,0 618 1.016,2
15:38 14,8 10,1 12,5 72,9 5,5 326 - 0,0 619 1.016,2
15:37 14,8 9,9 12,4 72,0 5,5 322 - 0,0 620 1.016,2
15:36 14,8 9,9 12,4 72,0 5,6 322 - 0,0 622 1.016,2
15:35 14,8 9,8 12,4 72,0 5,8 323 - 0,0 622 1.016,2
15:34 14,8 9,9 12,4 72,0 5,9 319 - 0,0 626 1.016,2
15:33 14,8 9,8 12,4 72,0 6,0 321 - 0,0 627 1.016,2
15:32 14,7 9,8 12,3 72,0 5,9 323 - 0,0 628 1.016,3
15:31 14,7 9,8 12,3 72,2 5,8 326 - 0,0 628 1.016,3
15:30 14,7 10,0 12,5 73,0 5,7 324 - 0,0 629 1.016,2
15:29 14,7 10,0 12,4 73,0 5,6 332 - 0,0 631 1.016,2
15:28 14,7 9,9 12,4 73,0 5,7 329 - 0,0 635 1.016,2
15:27 14,6 9,9 12,3 73,0 5,7 326 - 0,0 637 1.016,2
15:26 14,6 9,9 12,3 73,0 5,7 320 - 0,0 640 1.016,2
15:25 14,6 9,8 12,3 73,0 5,6 333 - 0,0 645 1.016,2
15:24 14,6 9,8 12,3 73,0 5,7 315 - 0,0 649 1.016,2
15:23 14,5 9,8 12,2 73,0 5,8 330 - 0,0 655 1.016,2
15:22 14,5 9,7 12,2 73,0 5,9 323 - 0,0 666 1.016,2
15:21 14,4 9,7 12,2 73,0 5,8 323 - 0,0 674 1.016,2
15:20 14,4 9,7 12,2 73,0 5,8 321 - 0,0 673 1.016,2
15:19 14,4 9,7 12,2 73,0 5,8 315 - 0,0 680 1.016,2
15:18 14,4 9,7 12,1 73,0 5,7 326 - 0,0 693 1.016,1
15:17 14,4 9,7 12,1 73,0 5,7 326 - 0,0 381 1.016,2
15:16 14,5 9,7 12,2 73,0 5,5 320 - 0,0 346 1.016,2
15:15 14,5 9,6 12,1 72,2 5,3 320 - 0,0 347 1.016,2
15:14 14,5 9,5 12,1 72,0 5,0 284 - 0,0 348 1.016,2
15:13 14,4 9,5 12,0 72,0 5,1 337 - 0,0 348 1.016,2
15:12 14,4 9,6 12,1 72,5 5,3 291 - 0,0 348 1.016,2
15:11 14,4 9,7 12,1 73,0 5,4 324 - 0,0 348 1.016,2
15:10 14,4 9,7 12,1 73,0 5,6 341 - 0,0 348 1.016,1
15:09 14,4 9,7 12,2 73,0 5,6 317 - 0,0 348 1.016,1
15:08 14,4 9,7 12,2 73,0 5,7 326 - 0,0 505 1.016,2
15:07 14,4 9,6 12,1 72,7 5,3 307 - 0,0 661 1.016,2
15:06 14,4 9,5 12,0 72,0 5,2 355 - 0,0 658 1.016,2
15:05 14,4 9,7 12,1 72,8 5,5 329 - 0,0 657 1.016,2
15:04 14,4 9,7 12,2 73,0 5,7 330 - 0,0 657 1.016,2
15:03 14,4 9,7 12,1 73,0 5,7 321 - 0,0 657 1.016,2
15:02 14,4 9,7 12,1 73,0 5,5 325 - 0,0 662 1.016,1
15:01 14,4 9,7 12,1 73,0 5,5 345 - 0,0 672 1.016,2
15:00 14,4 9,8 12,2 73,5 5,5 319 - 0,0 673 1.016,2
 
14:59 14,4 9,9 12,3 74,0 5,6 303 - 0,0 670 1.016,2
14:58 14,4 9,9 12,2 74,0 5,7 325 - 0,0 670 1.016,2
14:57 14,3 9,6 12,1 73,1 5,7 313 - 0,0 672 1.016,1
14:56 14,3 9,6 12,0 73,0 5,6 311 - 0,0 672 1.016,1
14:55 14,3 9,6 12,0 73,0 5,5 330 - 0,0 672 1.016,1
14:54 14,3 9,6 12,0 73,5 5,5 324 - 0,0 675 1.016,2
14:53 14,3 9,7 12,1 74,0 5,4 330 - 0,0 675 1.016,2
14:52 14,2 9,7 12,1 74,0 5,4 330 - 0,0 675 1.016,1
14:51 14,2 9,7 12,0 74,0 5,5 320 - 0,0 675 1.016,2
14:50 14,2 9,5 11,9 73,0 5,5 323 - 0,0 675 1.016,2
14:49 14,2 9,6 12,0 73,6 5,5 313 - 0,0 675 1.016,1
14:48 14,1 9,5 11,9 73,5 5,5 322 - 0,0 675 1.016,2
14:47 14,1 9,4 11,8 73,0 5,5 311 - 0,0 675 1.016,2
14:46 14,1 9,4 11,8 73,0 5,5 311 - 0,0 676 1.016,2
14:45 14,1 9,4 11,9 73,1 5,5 324 - 0,0 674 1.016,1
14:44 14,1 9,6 11,9 74,0 5,5 317 - 0,0 676 1.016,2
14:43 14,1 9,5 11,9 74,0 5,6 310 - 0,0 679 1.016,2
14:42 14,0 9,5 11,9 74,0 5,7 327 - 0,0 679 1.016,1
14:41 14,0 9,5 11,8 74,0 5,7 323 - 0,0 679 1.016,1
14:40 13,9 9,4 11,8 74,0 5,8 336 - 0,0 679 1.016,1
14:39 13,9 9,4 11,8 74,0 5,8 330 - 0,0 678 1.016,1
14:38 14,0 9,5 11,8 74,0 5,9 326 - 0,0 677 1.016,1
14:37 14,0 9,5 11,9 74,0 5,9 317 - 0,0 677 1.016,1
14:36 14,0 9,5 11,9 74,0 6,1 298 - 0,0 679 1.016,1
14:35 14,1 9,5 11,9 74,0 6,0 323 - 0,0 679 1.016,1
14:34 14,0 9,5 11,9 74,0 6,0 318 - 0,0 679 1.016,2
14:33 14,0 9,5 11,9 74,0 5,9 321 - 0,0 680 1.016,3
14:32 14,0 9,5 11,8 74,0 6,0 301 - 0,0 681 1.016,4
14:31 13,9 9,4 11,8 74,0 6,0 323 - 0,0 684 1.016,3
14:30 13,9 9,4 11,8 74,0 5,9 323 - 0,0 684 1.016,3
14:29 13,9 9,4 11,7 74,0 5,8 319 - 0,0 686 1.016,3
14:28 13,9 9,4 11,7 74,0 5,7 326 - 0,0 686 1.016,3
14:27 13,8 9,4 11,7 74,2 5,7 319 - 0,0 687 1.016,3
14:26 13,8 9,5 11,8 74,7 5,5 332 - 0,0 686 1.016,4
14:25 13,8 9,3 11,6 74,0 5,5 340 - 0,0 687 1.016,3
14:24 13,8 9,3 11,6 74,0 5,7 315 - 0,0 687 1.016,2
14:23 13,8 9,4 11,7 74,8 5,9 317 - 0,0 686 1.016,3
14:22 13,7 9,4 11,7 75,0 5,9 320 - 0,0 684 1.016,3
14:21 13,7 9,4 11,7 75,0 6,0 324 - 0,0 685 1.016,4
14:20 13,6 9,3 11,6 75,0 5,9 323 - 0,0 687 1.016,3
14:19 13,6 9,3 11,6 75,0 5,8 330 - 0,0 686 1.016,1
14:18 13,6 9,3 11,6 75,0 5,6 318 - 0,0 687 1.016,1
14:17 13,6 9,3 11,5 75,0 5,4 303 - 0,0 689 1.016,1
14:16 13,6 9,3 11,5 75,0 5,4 316 - 0,0 690 1.016,1
14:15 13,6 9,3 11,5 75,0 5,6 319 - 0,0 692 1.016,1
14:14 13,5 9,3 11,5 75,0 5,8 318 - 0,0 692 1.016,1
14:13 13,5 9,2 11,5 75,0 5,9 322 - 0,0 691 1.016,2
14:12 13,6 9,3 11,5 75,0 5,7 315 - 0,0 691 1.016,1
14:11 13,5 9,4 11,6 75,8 5,5 345 - 0,0 691 1.016,1
14:10 13,5 9,4 11,6 76,0 5,5 334 - 0,0 690 1.016,1
14:09 13,5 9,3 11,6 75,8 5,5 321 - 0,0 691 1.016,1
14:08 13,4 9,2 11,4 75,0 5,7 325 - 0,0 691 1.016,1
14:07 13,4 9,1 11,4 75,0 5,7 323 - 0,0 691 1.016,1
14:06 13,4 9,1 11,4 75,0 5,8 332 - 0,0 693 1.016,1
14:05 13,3 9,0 11,3 75,0 5,8 321 - 0,0 693 1.016,1
14:04 13,4 9,1 11,4 75,0 5,9 326 - 0,0 693 1.016,1
14:03 13,4 9,1 11,4 75,0 5,9 326 - 0,0 693 1.016,1
14:02 13,4 9,1 11,4 75,0 5,9 319 - 0,0 693 1.016,1
14:01 13,4 9,1 11,4 75,0 5,8 324 - 0,0 693 1.016,1
14:00 13,4 9,0 11,3 74,3 5,6 316 - 0,0 693 1.016,1
 
13:59 13,4 8,9 11,2 74,0 5,5 303 - 0,0 693 1.016,1
13:58 13,3 8,9 11,2 74,0 5,5 326 - 0,0 694 1.016,1
13:57 13,4 8,9 11,3 74,3 5,6 320 - 0,0 695 1.016,1
13:56 13,4 9,1 11,4 75,0 5,6 328 - 0,0 696 1.016,1
13:55 13,3 9,1 11,3 75,0 5,5 338 - 0,0 696 1.016,2
13:54 13,3 9,0 11,3 75,0 5,2 317 - 0,0 696 1.016,1
13:53 13,3 9,0 11,3 75,0 5,1 323 - 0,0 696 1.016,1
13:52 13,3 9,0 11,3 75,0 5,1 318 - 0,0 696 1.016,1
13:51 13,3 9,0 11,3 75,0 5,2 330 - 0,0 696 1.016,1
13:50 13,2 8,9 11,2 75,0 5,2 330 - 0,0 696 1.016,1
13:49 13,2 8,9 11,2 75,0 5,2 330 - 0,0 696 1.016,1
13:48 13,2 8,9 11,2 75,0 5,1 328 - 0,0 696 1.016,1
13:47 13,2 9,0 11,3 75,9 5,2 327 - 0,0 696 1.016,1
13:46 13,2 9,1 11,3 76,0 5,2 328 - 0,0 696 1.016,1
13:45 13,1 9,0 11,2 75,7 5,2 319 - 0,0 696 1.016,1
13:44 13,1 8,8 11,1 75,0 5,1 326 - 0,0 696 1.016,1
13:43 13,1 8,8 11,1 75,0 5,2 326 - 0,0 696 1.016,1
13:42 13,0 8,7 11,0 75,0 5,2 327 - 0,0 696 1.016,1
13:41 13,0 8,7 11,0 75,0 4,6 330 - 0,0 696 1.016,1
13:40 13,0 8,7 11,0 75,0 4,4 272 - 0,0 696 1.016,1
13:39 13,0 8,8 11,1 75,6 4,7 328 - 0,0 695 1.016,1
13:38 13,0 8,9 11,1 76,0 5,1 323 - 0,0 696 1.016,1
13:37 13,0 8,9 11,1 76,0 5,2 329 - 0,0 694 1.016,1
13:36 13,0 8,9 11,1 76,0 5,3 324 - 0,0 694 1.016,1
13:35 13,0 8,9 11,1 76,0 5,4 326 - 0,0 694 1.016,1
13:34 13,0 8,9 11,1 76,0 5,5 325 - 0,0 693 1.016,1
13:33 12,9 8,9 11,1 76,0 5,2 324 - 0,0 693 1.016,1
13:32 12,9 8,8 11,0 76,0 5,0 1 - 0,0 693 1.016,1
13:31 12,9 8,8 11,0 76,0 4,8 341 - 0,0 693 1.016,1
13:30 12,8 8,6 10,9 75,2 5,0 314 - 0,0 693 1.016,1
13:29 12,8 8,7 10,9 76,0 5,1 314 - 0,0 693 1.016,1
13:28 12,8 8,7 10,9 76,0 5,2 329 - 0,0 693 1.016,1
13:27 12,8 8,7 10,9 76,0 5,1 322 - 0,0 693 1.016,1
13:26 12,8 8,7 10,9 76,0 5,1 315 - 0,0 693 1.016,1
13:25 12,7 8,7 10,9 76,0 5,1 327 - 0,0 691 1.016,1
13:24 12,7 8,6 10,8 76,0 5,2 329 - 0,0 693 1.016,1
13:23 12,7 8,6 10,8 76,0 5,1 332 - 0,0 693 1.016,1
13:22 12,7 8,6 10,8 76,0 5,1 323 - 0,0 693 1.016,2
13:21 12,7 8,6 10,8 76,0 5,2 322 - 0,0 693 1.016,2
13:20 12,6 8,6 10,8 76,0 5,2 321 - 0,0 693 1.016,2
13:19 12,7 8,6 10,8 76,0 5,2 330 - 0,0 691 1.016,2
13:18 12,6 8,5 10,7 76,0 5,2 326 - 0,0 691 1.016,2
13:17 12,6 8,5 10,7 76,0 5,3 329 - 0,0 691 1.016,2
13:16 12,6 8,5 10,7 76,0 5,4 318 - 0,0 690 1.016,2
13:15 12,6 8,5 10,7 76,0 5,4 322 - 0,0 689 1.016,2
13:14 12,6 8,5 10,7 76,0 5,2 321 - 0,0 689 1.016,2
13:13 12,6 8,7 10,8 76,7 5,2 337 - 0,0 689 1.016,2
13:12 12,7 8,8 10,9 77,0 5,3 320 - 0,0 688 1.016,2
13:11 12,7 8,8 10,9 77,0 5,4 320 - 0,0 687 1.016,2
13:10 12,7 8,8 10,9 77,0 5,3 322 - 0,0 687 1.016,2
13:09 12,6 8,7 10,8 76,6 5,2 325 - 0,0 686 1.016,2
13:08 12,6 8,5 10,7 76,0 5,0 326 - 0,0 687 1.016,2
13:07 12,6 8,5 10,7 76,0 4,9 321 - 0,0 687 1.016,2
13:06 12,6 8,3 10,6 75,2 4,9 320 - 0,0 687 1.016,3
13:05 12,6 8,3 10,6 75,0 5,0 319 - 0,0 686 1.016,2
13:04 12,6 8,3 10,6 75,0 5,0 319 - 0,0 686 1.016,2
13:03 12,6 8,3 10,6 75,0 4,8 321 - 0,0 686 1.016,2
13:02 12,6 8,3 10,6 75,0 4,8 311 - 0,0 684 1.016,2
13:01 12,6 8,3 10,6 75,0 4,9 331 - 0,0 684 1.016,2
13:00 12,6 8,3 10,6 75,0 5,0 324 - 0,0 683 1.016,2
 
12:59 12,6 8,3 10,6 74,8 5,0 309 - 0,0 683 1.016,2
12:58 12,6 8,1 10,5 74,0 4,7 321 - 0,0 683 1.016,2
12:57 12,6 8,1 10,5 74,0 4,7 317 - 0,0 682 1.016,2
12:56 12,6 8,1 10,5 74,0 4,9 319 - 0,0 682 1.016,2
12:55 12,6 8,0 10,4 73,3 5,0 328 - 0,0 682 1.016,2
12:54 12,6 7,9 10,4 73,0 4,8 331 - 0,0 681 1.016,2
12:53 12,5 7,9 10,3 73,0 4,6 328 - 0,0 680 1.016,2
12:52 12,5 7,9 10,3 73,0 4,6 313 - 0,0 680 1.016,2
12:51 12,5 7,9 10,3 73,0 4,7 322 - 0,0 680 1.016,2
12:50 12,5 7,8 10,3 73,0 4,8 322 - 0,0 680 1.016,2
12:49 12,5 7,6 10,2 72,1 4,7 330 - 0,0 680 1.016,2
12:48 12,4 7,4 10,0 71,2 4,5 322 - 0,0 679 1.016,2
12:47 12,3 7,5 10,0 72,0 4,4 328 - 0,0 679 1.016,2
12:46 12,3 7,5 10,0 72,0 4,6 338 - 0,0 678 1.016,2
12:45 12,3 7,4 10,0 72,0 4,8 339 - 0,0 677 1.016,2
12:44 12,3 7,4 10,0 72,0 4,8 345 - 0,0 677 1.016,2
12:43 12,3 7,4 10,0 72,0 4,7 335 - 0,0 675 1.016,2
12:42 12,2 7,4 9,9 72,0 4,5 336 - 0,0 675 1.016,2
12:41 12,2 7,4 9,9 72,0 4,4 331 - 0,0 675 1.016,2
12:40 12,2 7,4 9,9 72,0 4,5 337 - 0,0 674 1.016,2
12:39 12,2 7,4 9,9 72,0 4,5 355 - 0,0 671 1.016,2
12:38 12,2 7,5 9,9 72,7 4,4 330 - 0,0 671 1.016,3
12:37 12,1 7,5 10,0 73,0 4,2 350 - 0,0 671 1.016,3
12:36 12,1 7,5 9,9 73,0 4,0 328 - 0,0 671 1.016,3
12:35 12,1 7,4 9,9 73,0 3,8 328 - 0,0 670 1.016,2
12:34 12,1 7,4 9,9 73,0 3,9 13 - 0,0 669 1.016,2
12:33 12,0 7,4 9,8 73,0 4,0 338 - 0,0 670 1.016,2
12:32 12,0 7,4 9,8 73,0 4,0 336 - 0,0 668 1.016,3
12:31 12,0 7,5 9,9 73,9 4,1 319 - 0,0 666 1.016,3
12:30 12,0 7,5 9,9 74,0 4,1 333 - 0,0 666 1.016,3
12:29 11,9 7,5 9,9 74,0 4,2 340 - 0,0 666 1.016,3
12:28 11,9 7,5 9,9 74,0 4,0 328 - 0,0 665 1.016,2
12:27 11,9 7,5 9,8 74,0 4,2 318 - 0,0 664 1.016,2
12:26 11,9 7,5 9,8 74,0 4,3 329 - 0,0 663 1.016,2
12:25 11,9 7,6 9,9 74,9 4,3 327 - 0,0 663 1.016,2
12:24 11,8 7,6 9,9 75,0 4,2 317 - 0,0 663 1.016,2
12:23 11,8 7,6 9,9 75,0 4,3 326 - 0,0 662 1.016,2
12:22 11,8 7,6 9,9 75,0 4,3 330 - 0,0 661 1.016,2
12:21 11,8 7,5 9,8 75,0 4,2 322 - 0,0 659 1.016,2
12:20 11,8 7,5 9,8 75,0 4,3 310 - 0,0 659 1.016,2
12:19 11,8 7,5 9,8 75,0 4,2 317 - 0,0 659 1.016,2
12:18 11,8 7,5 9,8 75,0 4,1 328 - 0,0 658 1.016,2
12:17 11,8 7,5 9,8 75,0 4,1 328 - 0,0 657 1.016,2
12:16 11,8 7,5 9,8 75,0 4,3 327 - 0,0 656 1.016,2
12:15 11,8 7,6 9,9 75,6 4,2 318 - 0,0 656 1.016,2
12:14 11,8 7,6 9,8 75,3 4,0 325 - 0,0 654 1.016,2
12:13 11,7 7,5 9,8 75,0 3,9 296 - 0,0 651 1.016,1
12:12 11,6 7,4 9,7 75,0 3,7 308 - 0,0 650 1.016,2
12:11 11,6 7,4 9,7 75,0 3,7 345 - 0,0 650 1.016,2
12:10 11,6 7,4 9,7 75,0 3,9 319 - 0,0 649 1.016,2
12:09 11,6 7,4 9,7 75,0 3,8 329 - 0,0 649 1.016,2
12:08 11,6 7,3 9,6 75,0 3,6 345 - 0,0 647 1.016,1
12:07 11,5 7,3 9,6 75,1 3,9 319 - 0,0 646 1.016,1
12:06 11,5 7,4 9,7 75,8 4,4 325 - 0,0 644 1.016,2
12:05 11,5 7,3 9,5 75,0 4,4 323 - 0,0 643 1.016,2
12:04 11,5 7,3 9,5 75,0 4,3 318 - 0,0 643 1.016,1
12:03 11,5 7,2 9,5 75,0 4,3 325 - 0,0 642 1.016,1
12:02 11,4 7,2 9,5 75,0 4,2 334 - 0,0 640 1.016,1
12:01 11,4 7,2 9,5 75,0 4,0 323 - 0,0 640 1.016,1
12:00 11,4 7,2 9,5 75,0 3,9 355 - 0,0 639 1.016,1
 
11:59 11,4 7,2 9,5 75,0 4,2 320 - 0,0 638 1.016,1
11:58 11,4 7,2 9,4 75,0 4,4 330 - 0,0 638 1.016,1
11:57 11,4 7,1 9,4 75,0 4,2 327 - 0,0 638 1.016,1
11:56 11,4 7,1 9,4 75,0 3,9 332 - 0,0 636 1.016,1
11:55 11,4 7,1 9,4 75,0 3,9 355 - 0,0 635 1.016,1
11:54 11,4 7,1 9,4 75,0 4,0 345 - 0,0 634 1.016,1
11:53 11,3 7,1 9,4 75,0 3,9 336 - 0,0 632 1.016,1
11:52 11,3 7,2 9,5 75,6 3,9 355 - 0,0 631 1.016,1
11:51 11,3 7,3 9,5 76,0 4,0 339 - 0,0 629 1.016,1
11:50 11,3 7,3 9,5 76,0 4,3 314 - 0,0 627 1.016,1
11:49 11,3 7,3 9,5 76,0 4,2 334 - 0,0 626 1.016,1
11:48 11,3 7,3 9,5 76,0 4,2 321 - 0,0 626 1.016,1
11:47 11,3 7,3 9,5 76,0 4,1 334 - 0,0 625 1.016,1
11:46 11,3 7,3 9,5 76,0 4,0 332 - 0,0 622 1.016,1
11:45 11,3 7,2 9,4 76,0 4,0 355 - 0,0 621 1.016,1
11:44 11,3 7,2 9,4 76,0 4,2 340 - 0,0 619 1.016,1
11:43 11,3 7,2 9,4 76,0 4,2 332 - 0,0 619 1.016,1
11:42 11,3 7,2 9,4 76,0 4,0 317 - 0,0 619 1.016,0
11:41 11,3 7,3 9,5 76,5 4,0 314 - 0,0 617 1.016,0
11:40 11,2 7,4 9,5 77,0 3,8 336 - 0,0 615 1.016,1
11:39 11,2 7,3 9,4 77,0 3,4 340 - 0,0 613 1.016,0
11:38 11,2 7,3 9,4 77,0 2,9 345 - 0,0 613 1.016,0
11:37 11,1 7,1 9,3 76,0 3,3 289 - 0,0 612 1.016,0
11:36 11,1 7,0 9,2 76,0 3,7 329 - 0,0 612 1.016,0
11:35 11,1 7,0 9,2 76,0 4,1 355 - 0,0 610 1.016,0
11:34 11,1 7,1 9,3 76,6 4,1 330 - 0,0 608 1.016,0
11:33 11,0 7,1 9,2 76,3 4,0 335 - 0,0 608 1.016,0
11:32 11,0 7,0 9,2 76,0 4,1 4 - 0,0 606 1.015,9
11:31 11,0 7,0 9,2 76,0 4,2 355 - 0,0 604 1.016,0
11:30 11,0 7,0 9,2 76,0 4,4 330 - 0,0 603 1.016,0
11:29 11,1 7,0 9,2 76,0 4,5 323 - 0,0 601 1.016,0
11:28 11,1 7,0 9,2 76,0 4,4 332 - 0,0 603 1.016,0
11:27 11,1 7,0 9,2 76,1 3,9 321 - 0,0 601 1.016,0
11:26 11,1 7,2 9,3 77,0 3,6 290 - 0,0 599 1.016,0
11:25 11,0 7,2 9,3 77,0 3,5 336 - 0,0 597 1.016,0
11:24 11,0 7,2 9,3 77,0 3,5 335 - 0,0 596 1.015,9
11:23 11,0 7,1 9,3 77,0 2,4 315 - 0,0 596 1.016,0
11:22 11,0 7,1 9,3 77,0 2,0 54 - 0,0 594 1.015,9
11:21 10,9 7,3 9,3 77,8 2,2 355 - 0,0 592 1.016,0
11:20 10,9 7,1 9,2 77,1 2,4 350 - 0,0 589 1.016,0
11:19 10,8 7,0 9,1 77,0 2,6 14 - 0,0 587 1.016,0
11:18 10,8 7,0 9,1 77,0 2,8 338 - 0,0 587 1.016,0
11:17 10,8 6,9 9,1 77,0 2,6 345 - 0,0 587 1.016,0
11:16 10,7 6,9 9,0 77,0 2,2 332 - 0,0 585 1.015,9
11:15 10,7 6,9 9,0 77,0 2,2 14 - 0,0 583 1.016,0
11:14 10,7 6,8 9,0 77,0 2,5 9 - 0,0 582 1.016,0
11:13 10,7 6,8 9,0 77,0 2,7 37 - 0,0 580 1.015,9
11:12 10,7 6,8 9,0 77,0 3,3 336 - 0,0 577 1.015,9
11:11 10,7 6,8 9,0 77,0 3,8 325 - 0,0 577 1.015,9
11:10 10,7 6,8 9,0 77,0 3,6 334 - 0,0 575 1.015,9
11:09 10,7 6,8 9,0 77,0 3,2 338 - 0,0 573 1.015,9
11:08 10,7 7,0 9,0 78,0 2,8 336 - 0,0 572 1.015,9
11:07 10,6 7,0 9,0 78,0 2,6 26 - 0,0 570 1.015,9
11:06 10,6 7,0 9,0 78,0 2,9 20 - 0,0 569 1.015,9
11:05 10,6 7,0 9,0 78,0 3,3 345 - 0,0 566 1.015,9
11:04 10,6 7,0 9,0 78,0 3,7 326 - 0,0 566 1.015,9
11:03 10,6 7,0 9,0 78,0 3,6 1 - 0,0 564 1.015,8
11:02 10,6 6,9 9,0 78,0 3,6 330 - 0,0 564 1.015,8
11:01 10,6 6,9 9,0 78,0 3,9 341 - 0,0 562 1.015,8
11:00 10,6 6,9 9,0 78,0 4,1 1 - 0,0 559 1.015,8
 
10:59 10,6 6,9 9,0 78,0 3,7 336 - 0,0 557 1.015,8
10:58 10,6 6,9 8,9 78,0 3,5 328 - 0,0 555 1.015,8
10:57 10,5 6,9 8,9 78,0 3,7 340 - 0,0 554 1.015,8
10:56 10,5 6,9 8,9 78,0 3,9 350 - 0,0 552 1.015,8
10:55 10,5 6,9 8,9 78,0 3,5 328 - 0,0 549 1.015,8
10:54 10,5 6,9 8,9 78,0 3,0 345 - 0,0 550 1.015,8
10:53 10,5 6,8 8,9 78,0 2,6 350 - 0,0 550 1.015,8
10:52 10,4 6,8 8,8 78,0 2,7 345 - 0,0 548 1.015,7
10:51 10,4 6,8 8,8 78,0 2,7 345 - 0,0 546 1.015,8
10:50 10,4 6,8 8,8 78,0 3,0 22 - 0,0 544 1.015,8
10:49 10,4 6,8 8,8 78,0 3,2 331 - 0,0 543 1.015,8
10:48 10,5 6,8 8,9 78,0 3,8 320 - 0,0 540 1.015,8
10:47 10,5 6,8 8,8 78,0 3,9 332 - 0,0 540 1.015,8
10:46 10,5 6,8 8,8 78,0 3,5 328 - 0,0 538 1.015,8
10:45 10,4 6,8 8,8 78,0 2,9 7 - 0,0 535 1.015,7
10:44 10,4 6,8 8,8 78,0 2,7 10 - 0,0 533 1.015,7
10:43 10,4 6,8 8,8 78,0 3,0 326 - 0,0 532 1.015,7
10:42 10,4 6,8 8,8 78,0 3,4 340 - 0,0 531 1.015,7
10:41 10,4 6,7 8,8 78,0 3,6 340 - 0,0 530 1.015,7
10:40 10,4 6,7 8,8 78,0 3,5 324 - 0,0 526 1.015,7
10:39 10,4 6,9 8,8 79,0 3,5 9 - 0,0 523 1.015,7
10:38 10,3 6,9 8,8 79,0 3,3 338 - 0,0 522 1.015,7
10:37 10,3 6,8 8,8 79,0 2,8 3 - 0,0 522 1.015,7
10:36 10,3 6,7 8,7 78,5 2,2 355 - 0,0 520 1.015,7
10:35 10,2 6,6 8,6 78,0 2,3 9 - 0,0 519 1.015,7
10:34 10,2 6,6 8,6 78,0 2,5 332 - 0,0 518 1.015,7
10:33 10,2 6,5 8,6 78,0 2,8 350 - 0,0 515 1.015,7
10:32 10,2 6,6 8,6 78,0 2,9 345 - 0,0 513 1.015,8
10:31 10,2 6,5 8,6 78,0 2,9 330 - 0,0 512 1.015,7
10:30 10,2 6,6 8,6 78,0 2,8 327 - 0,0 509 1.015,7
10:29 10,2 6,7 8,6 78,7 2,9 355 - 0,0 509 1.015,7
10:28 10,2 6,5 8,6 78,2 3,3 350 - 0,0 506 1.015,7
10:27 10,1 6,5 8,5 78,0 3,3 336 - 0,0 506 1.015,7
10:26 10,1 6,5 8,5 78,0 3,2 345 - 0,0 505 1.015,7
10:25 10,1 6,5 8,5 78,0 3,1 324 - 0,0 500 1.015,7
10:24 10,1 6,5 8,5 78,0 3,2 339 - 0,0 499 1.015,7
10:23 10,1 6,6 8,6 78,7 3,4 316 - 0,0 499 1.015,7
10:22 10,1 6,5 8,5 78,2 3,2 332 - 0,0 497 1.015,7
10:21 10,1 6,5 8,5 78,0 2,8 345 - 0,0 495 1.015,7
10:20 10,1 6,5 8,5 78,0 2,9 350 - 0,0 494 1.015,7
10:19 10,1 6,5 8,5 78,0 3,4 332 - 0,0 491 1.015,7
10:18 10,1 6,5 8,5 78,0 3,8 345 - 0,0 492 1.015,6
10:17 10,1 6,5 8,5 78,0 3,8 345 - 0,0 489 1.015,6
10:16 10,1 6,5 8,5 78,0 3,4 322 - 0,0 486 1.015,6
10:15 10,1 6,5 8,5 78,0 3,0 317 - 0,0 482 1.015,6
10:14 10,2 6,6 8,6 78,0 3,0 297 - 0,0 482 1.015,6
10:13 10,2 6,6 8,6 78,0 3,1 313 - 0,0 480 1.015,6
10:12 10,3 6,6 8,6 78,0 3,3 317 - 0,0 478 1.015,6
10:11 10,3 6,6 8,7 78,0 3,3 323 - 0,0 475 1.015,6
10:10 10,3 6,6 8,7 78,0 3,3 326 - 0,0 453 1.015,6
10:09 10,3 6,7 8,7 78,0 3,3 324 - 0,0 424 1.015,6
10:08 10,3 6,7 8,7 78,0 3,4 330 - 0,0 361 1.015,6
10:07 10,3 6,7 8,7 78,0 3,4 331 - 0,0 255 1.015,6
10:06 10,3 6,7 8,7 78,0 3,2 317 - 0,0 148 1.015,6
10:05 10,3 6,7 8,7 78,0 2,6 313 - 0,0 68 1.015,7
10:04 10,3 6,7 8,7 78,0 1,7 326 - 0,0 41 1.015,6
10:03 10,3 6,7 8,7 77,8 2,0 41 - 0,0 41 1.015,6
10:02 10,3 6,5 8,6 77,0 2,4 345 - 0,0 41 1.015,6
10:01 10,3 6,5 8,6 77,0 2,6 319 - 0,0 40 1.015,6
10:00 10,3 6,5 8,6 77,0 2,0 350 - 0,0 40 1.015,6
 
09:59 10,3 6,5 8,6 77,0 1,6 355 - 0,0 40 1.015,6
09:58 10,3 6,5 8,6 77,0 1,6 9 - 0,0 40 1.015,6
09:57 10,3 6,5 8,6 77,0 2,0 323 - 0,0 40 1.015,6
09:56 10,3 6,5 8,6 77,0 2,4 320 - 0,0 40 1.015,6
09:55 10,3 6,5 8,6 77,0 2,3 327 - 0,0 40 1.015,6
09:54 10,3 6,5 8,6 77,0 2,2 3 - 0,0 40 1.015,6
09:53 10,3 6,5 8,6 77,0 2,2 27 - 0,0 40 1.015,6
09:52 10,3 6,3 8,5 76,1 2,4 345 - 0,0 40 1.015,6
09:51 10,3 6,3 8,5 76,0 2,9 8 - 0,0 40 1.015,6
09:50 10,3 6,3 8,5 76,0 3,2 340 - 0,0 40 1.015,5
09:49 10,3 6,3 8,5 76,0 3,0 350 - 0,0 40 1.015,5
09:48 10,3 6,3 8,5 76,0 3,0 355 - 0,0 40 1.015,5
09:47 10,3 6,3 8,5 76,0 3,1 332 - 0,0 40 1.015,5
09:46 10,3 6,1 8,4 75,1 3,4 340 - 0,0 40 1.015,5
09:45 10,3 6,1 8,4 75,0 2,9 323 - 0,0 40 1.015,5
09:44 10,3 6,1 8,4 75,0 2,4 340 - 0,0 40 1.015,5
09:43 10,4 6,2 8,5 75,0 2,5 18 - 0,0 39 1.015,5
09:42 10,4 6,2 8,5 75,0 2,9 7 - 0,0 40 1.015,5
09:41 10,4 6,2 8,4 75,0 2,7 355 - 0,0 40 1.015,5
09:40 10,3 6,1 8,4 75,0 2,2 337 - 0,0 40 1.015,5
09:39 10,3 6,1 8,4 75,0 2,0 14 - 0,0 39 1.015,5
09:38 10,3 6,1 8,4 75,0 2,1 49 - 0,0 40 1.015,5
09:37 10,3 6,1 8,4 75,0 2,2 350 - 0,0 40 1.015,4
09:36 10,3 6,1 8,4 75,0 2,6 355 - 0,0 40 1.015,4
09:35 10,4 6,2 8,5 75,0 2,7 14 - 0,0 39 1.015,5
09:34 10,4 6,2 8,5 75,0 2,9 44 - 0,0 39 1.015,4
09:33 10,4 6,2 8,5 75,0 2,8 22 - 0,0 39 1.015,4
09:32 10,4 6,2 8,5 75,0 2,5 53 - 0,0 39 1.015,4
09:31 10,4 6,2 8,5 75,0 2,5 5 - 0,0 39 1.015,4
09:30 10,4 6,2 8,5 75,0 2,7 24 - 0,0 40 1.015,3
09:29 10,4 6,2 8,5 75,0 2,9 345 - 0,0 158 1.015,4
09:28 10,4 6,2 8,5 75,0 3,2 11 - 0,0 336 1.015,4
09:27 10,4 6,2 8,5 75,0 2,9 345 - 0,0 336 1.015,4
09:26 10,4 6,2 8,5 75,0 2,3 54 - 0,0 382 1.015,4
09:25 10,4 6,2 8,5 75,0 1,9 1 - 0,0 388 1.015,4
09:24 10,4 6,2 8,5 75,0 1,6 9 - 0,0 383 1.015,4
09:23 10,4 6,2 8,5 75,0 1,7 55 - 0,0 382 1.015,4
09:22 10,3 6,1 8,4 75,0 2,2 51 - 0,0 380 1.015,4
09:21 10,3 6,1 8,4 75,0 2,8 43 - 0,0 379 1.015,4
09:20 10,3 6,1 8,4 75,0 2,9 42 - 0,0 376 1.015,4
09:19 10,3 6,1 8,4 75,0 2,7 32 - 0,0 374 1.015,4
09:18 10,3 5,9 8,3 74,2 2,5 36 - 0,0 373 1.015,4
09:17 10,3 5,9 8,3 74,0 2,9 38 - 0,0 371 1.015,4
09:16 10,3 5,9 8,3 74,0 3,2 18 - 0,0 369 1.015,4
09:15 10,3 5,9 8,3 74,0 3,4 29 - 0,0 367 1.015,4
09:14 10,3 5,9 8,3 74,0 3,0 41 - 0,0 366 1.015,3
09:13 10,3 5,9 8,3 74,0 2,8 45 - 0,0 362 1.015,3
09:12 10,3 5,9 8,3 74,2 3,2 18 - 0,0 361 1.015,3
09:11 10,3 6,1 8,4 75,0 3,5 45 - 0,0 358 1.015,3
09:10 10,3 6,1 8,4 75,0 3,3 45 - 0,0 357 1.015,3
09:09 10,3 6,1 8,4 75,0 2,6 47 - 0,0 354 1.015,3
09:08 10,3 6,1 8,4 75,0 2,3 20 - 0,0 352 1.015,3
09:07 10,3 6,1 8,4 75,0 2,2 57 - 0,0 350 1.015,2
09:06 10,2 5,9 8,2 74,2 2,4 64 - 0,0 347 1.015,2
09:05 10,2 6,0 8,3 74,8 2,7 33 - 0,0 346 1.015,2
09:04 10,2 5,8 8,2 74,0 2,9 34 - 0,0 344 1.015,2
09:03 10,2 5,9 8,3 74,0 2,9 345 - 0,0 340 1.015,2
09:02 10,3 5,9 8,3 74,0 2,9 20 - 0,0 339 1.015,2
09:01 10,3 5,9 8,3 74,0 3,1 9 - 0,0 338 1.015,2
09:00 10,3 5,9 8,3 74,0 3,1 53 - 0,0 335 1.015,2
 
08:59 10,3 5,9 8,3 74,0 3,0 55 - 0,0 333 1.015,2
08:58 10,3 5,9 8,3 74,0 2,9 12 - 0,0 331 1.015,3
08:57 10,3 5,9 8,3 74,0 3,0 38 - 0,0 329 1.015,3
08:56 10,3 5,9 8,3 74,0 2,9 30 - 0,0 327 1.015,2
08:55 10,3 5,9 8,3 74,0 2,5 57 - 0,0 323 1.015,2
08:54 10,3 5,9 8,3 74,0 2,3 355 - 0,0 323 1.015,2
08:53 10,3 5,9 8,3 74,0 2,3 52 - 0,0 321 1.015,2
08:52 10,3 5,9 8,3 74,0 2,3 24 - 0,0 319 1.015,2
08:51 10,3 5,9 8,3 74,0 2,3 39 - 0,0 316 1.015,2
08:50 10,2 5,8 8,2 74,0 2,4 30 - 0,0 313 1.015,2
08:49 10,2 5,8 8,2 74,0 2,7 42 - 0,0 309 1.015,2
08:48 10,2 5,8 8,2 74,0 3,1 61 - 0,0 309 1.015,2
08:47 10,2 5,8 8,2 74,0 2,7 41 - 0,0 307 1.015,2
08:46 10,2 5,8 8,2 74,0 2,6 336 - 0,0 305 1.015,3
08:45 10,2 5,8 8,2 74,0 2,5 27 - 0,0 302 1.015,2
08:44 10,2 5,6 8,1 73,4 2,4 355 - 0,0 301 1.015,2
08:43 10,1 5,6 8,0 73,0 2,5 37 - 0,0 299 1.015,2
08:42 10,1 5,6 8,0 73,0 2,9 43 - 0,0 296 1.015,2
08:41 10,2 5,6 8,1 73,0 3,4 41 - 0,0 294 1.015,2
08:40 10,2 5,6 8,1 73,0 3,9 32 - 0,0 291 1.015,2
08:39 10,2 5,6 8,1 73,0 4,0 41 - 0,0 290 1.015,2
08:38 10,2 5,6 8,1 73,0 3,9 7 - 0,0 288 1.015,1
08:37 10,2 5,6 8,1 73,0 3,6 16 - 0,0 286 1.015,1
08:36 10,2 5,6 8,1 72,9 3,4 31 - 0,0 284 1.015,1
08:35 10,2 5,4 8,0 72,0 3,1 27 - 0,0 282 1.015,1
08:34 10,2 5,4 8,0 72,0 2,8 52 - 0,0 280 1.015,1
08:33 10,2 5,4 8,0 72,0 2,6 359 - 0,0 278 1.015,1
08:32 10,2 5,5 8,0 72,7 2,7 350 - 0,0 274 1.015,1
08:31 10,1 5,4 8,0 72,2 2,6 51 - 0,0 272 1.015,1
08:30 10,1 5,3 7,9 72,0 2,6 18 - 0,0 270 1.015,1
08:29 10,1 5,3 7,9 72,0 2,7 30 - 0,0 268 1.015,1
08:28 10,1 5,3 7,9 72,0 3,2 41 - 0,0 266 1.015,1
08:27 10,0 5,2 7,8 71,5 3,2 26 - 0,0 264 1.015,1
08:26 10,0 5,1 7,8 71,0 2,8 42 - 0,0 262 1.015,0
08:25 10,1 5,1 7,8 71,0 2,7 51 - 0,0 259 1.015,0
08:24 10,1 5,1 7,8 71,0 3,0 41 - 0,0 257 1.015,0
08:23 10,1 5,1 7,8 71,0 3,5 57 - 0,0 255 1.015,0
08:22 10,1 5,1 7,8 71,0 3,7 18 - 0,0 252 1.015,0
08:21 10,1 5,2 7,8 71,0 3,8 45 - 0,0 250 1.015,0
08:20 10,2 5,2 7,9 71,0 3,9 36 - 0,0 248 1.015,1
08:19 10,2 5,2 7,9 71,0 3,6 39 - 0,0 245 1.015,1
08:18 10,2 5,2 7,9 71,0 2,8 25 - 0,0 244 1.015,0
08:17 10,2 5,2 7,9 71,0 2,6 56 - 0,0 239 1.015,0
08:16 10,2 5,3 7,9 71,0 2,9 30 - 0,0 237 1.015,0
08:15 10,2 5,3 7,9 71,0 2,9 39 - 0,0 236 1.015,0
08:14 10,2 5,2 7,9 71,0 3,0 50 - 0,0 234 1.015,1
08:13 10,2 5,4 8,0 71,9 3,3 45 - 0,0 231 1.015,1
08:12 10,2 5,4 8,0 72,0 3,5 68 - 0,0 230 1.015,1
08:11 10,2 5,4 8,0 72,0 3,4 43 - 0,0 228 1.015,0
08:10 10,1 5,4 8,0 72,0 3,1 61 - 0,0 224 1.015,0
08:09 10,1 5,4 8,0 72,0 3,3 39 - 0,0 221 1.015,1
08:08 10,1 5,3 7,9 72,0 3,4 47 - 0,0 220 1.015,1
08:07 10,1 5,3 7,9 72,1 3,2 51 - 0,0 217 1.015,0
08:06 10,1 5,5 8,0 73,0 3,0 32 - 0,0 215 1.015,0
08:05 10,1 5,5 8,0 73,0 3,3 30 - 0,0 213 1.015,0
08:04 10,0 5,4 7,9 73,0 3,2 30 - 0,0 211 1.015,0
08:03 10,0 5,4 7,9 73,0 3,1 51 - 0,0 209 1.015,0
08:02 9,9 5,4 7,9 73,0 2,9 20 - 0,0 207 1.015,0
08:01 9,9 5,4 7,9 73,0 2,7 53 - 0,0 204 1.015,0
08:00 10,0 5,4 7,9 73,0 2,7 30 - 0,0 200 1.015,0
 
07:59 10,0 5,5 8,0 73,0 3,2 26 - 0,0 199 1.015,1
07:58 10,1 5,5 8,0 73,0 3,5 43 - 0,0 197 1.015,0
07:57 10,0 5,4 7,9 73,0 3,3 45 - 0,0 195 1.015,0
07:56 10,0 5,4 7,9 73,0 2,9 45 - 0,0 192 1.015,0
07:55 10,0 5,4 7,9 73,1 2,8 19 - 0,0 190 1.015,0
07:54 10,0 5,6 8,0 74,0 2,8 38 - 0,0 189 1.015,0
07:53 9,9 5,6 7,9 74,0 2,9 55 - 0,0 186 1.014,9
07:52 9,9 5,5 7,9 74,0 2,9 38 - 0,0 183 1.014,9
07:51 9,8 5,5 7,9 74,0 2,9 63 - 0,0 181 1.014,9
07:50 9,8 5,4 7,8 74,0 2,9 46 - 0,0 179 1.014,9
07:49 9,8 5,4 7,8 74,0 3,2 35 - 0,0 177 1.014,9
07:48 9,8 5,4 7,8 74,0 3,2 35 - 0,0 175 1.014,9
07:47 9,8 5,4 7,8 74,0 3,2 68 - 0,0 172 1.015,0
07:46 9,8 5,4 7,8 74,0 3,2 45 - 0,0 169 1.014,9
07:45 9,8 5,4 7,8 74,0 3,4 27 - 0,0 166 1.015,0
07:44 9,8 5,4 7,8 74,0 3,2 56 - 0,0 163 1.015,0
07:43 9,8 5,5 7,9 74,0 2,9 82 - 0,0 161 1.014,9
07:42 9,8 5,5 7,9 74,3 2,7 57 - 0,0 159 1.014,9
07:41 9,8 5,7 8,0 75,0 3,0 39 - 0,0 156 1.014,9
07:40 9,8 5,7 8,0 75,0 3,4 65 - 0,0 153 1.014,9
07:39 9,8 5,6 7,9 75,0 3,8 52 - 0,0 150 1.014,9
07:38 9,8 5,6 7,9 75,0 3,7 81 - 0,0 147 1.014,9
07:37 9,8 5,8 8,0 76,0 3,4 28 - 0,0 145 1.014,9
07:36 9,7 5,7 8,0 76,0 2,9 44 - 0,0 143 1.014,9
07:35 9,7 5,7 7,9 76,0 2,2 44 - 0,0 140 1.014,9
07:34 9,7 5,7 7,9 76,0 2,0 68 - 0,0 137 1.014,9
07:33 9,7 5,7 7,9 76,0 2,1 39 - 0,0 135 1.014,9
07:32 9,7 5,7 7,9 76,0 2,0 48 - 0,0 133 1.014,9
07:31 9,7 5,7 7,9 76,2 1,8 41 - 0,0 129 1.014,9
07:30 9,7 5,9 8,0 77,0 1,5 40 - 0,0 127 1.014,8
07:29 9,6 5,8 7,9 77,0 1,4 67 - 0,0 125 1.014,8
07:28 9,6 5,8 7,9 77,0 1,4 28 - 0,0 123 1.014,8
07:27 9,6 5,8 7,9 77,0 1,4 59 - 0,0 121 1.014,8
07:26 9,6 5,8 7,9 77,1 1,4 94 - 0,0 118 1.014,8
07:25 9,6 6,0 8,0 78,0 1,3 45 - 0,0 115 1.014,8
07:24 9,6 6,0 8,0 78,0 1,3 66 - 0,0 113 1.014,7
07:23 9,6 5,9 8,0 78,0 1,3 75 - 0,0 111 1.014,7
07:22 9,6 5,9 8,0 78,0 1,3 65 - 0,0 107 1.014,7
07:21 9,6 5,9 8,0 78,0 1,3 53 - 0,0 105 1.014,7
07:20 9,6 5,9 8,0 78,0 1,2 70 - 0,0 103 1.014,7
07:19 9,6 5,9 8,0 78,0 1,2 72 - 0,0 100 1.014,7
07:18 9,5 5,9 7,9 78,0 1,3 80 - 0,0 97 1.014,7
07:17 9,5 5,9 7,9 78,0 1,3 76 - 0,0 94 1.014,7
07:16 9,5 5,8 7,9 78,0 1,2 91 - 0,0 86 1.014,7
07:15 9,4 6,0 7,9 78,8 1,2 45 - 0,0 85 1.014,6
07:14 9,4 6,0 7,9 79,0 1,3 89 - 0,0 82 1.014,6
07:13 9,4 6,0 7,9 79,0 1,4 59 - 0,0 79 1.014,7
07:12 9,4 5,9 7,9 79,0 1,3 76 - 0,0 77 1.014,7
07:11 9,3 5,9 7,8 79,0 1,3 32 - 0,0 76 1.014,7
07:10 9,3 5,9 7,8 79,0 1,5 74 - 0,0 76 1.014,7
07:09 9,3 5,7 7,7 78,2 1,5 70 - 0,0 73 1.014,7
07:08 9,2 5,6 7,7 78,0 1,6 45 - 0,0 70 1.014,6
07:07 9,2 5,6 7,7 78,0 1,9 49 - 0,0 71 1.014,6
07:06 9,2 5,6 7,6 78,0 2,0 48 - 0,0 71 1.014,6
07:05 9,2 5,6 7,6 78,0 2,1 45 - 0,0 69 1.014,6
07:04 9,2 5,6 7,6 78,0 2,1 40 - 0,0 69 1.014,5
07:03 9,2 5,7 7,7 78,7 1,9 54 - 0,0 66 1.014,6
07:02 9,1 5,5 7,6 78,1 1,6 57 - 0,0 63 1.014,6
07:01 9,1 5,5 7,5 78,0 1,6 51 - 0,0 59 1.014,6
07:00 9,1 5,5 7,5 78,0 1,9 55 - 0,0 57 1.014,6
 
06:59 9,1 5,5 7,5 78,0 2,1 34 - 0,0 54 1.014,5
06:58 9,1 5,5 7,5 78,0 2,3 68 - 0,0 51 1.014,5
06:57 9,1 5,4 7,5 78,0 2,4 50 - 0,0 52 1.014,5
06:56 9,1 5,6 7,6 79,0 2,5 49 - 0,0 53 1.014,5
06:55 9,1 5,6 7,6 79,0 2,5 24 - 0,0 52 1.014,5
06:54 9,0 5,6 7,5 79,0 2,9 30 - 0,0 49 1.014,5
06:53 9,0 5,6 7,5 79,0 3,1 44 - 0,0 47 1.014,5
06:52 9,0 5,6 7,5 79,0 3,1 39 - 0,0 46 1.014,5
06:51 9,0 5,5 7,5 79,0 2,8 39 - 0,0 45 1.014,5
06:50 8,9 5,5 7,5 79,0 2,8 39 - 0,0 43 1.014,5
06:49 9,0 5,5 7,5 79,0 3,0 26 - 0,0 41 1.014,5
06:48 8,9 5,5 7,5 79,0 3,4 39 - 0,0 40 1.014,5
06:47 8,9 5,5 7,5 79,0 3,7 34 - 0,0 39 1.014,5
06:46 8,9 5,4 7,4 78,3 3,7 34 - 0,0 37 1.014,5
06:45 8,9 5,5 7,4 78,9 3,5 39 - 0,0 35 1.014,4
06:44 8,9 5,5 7,4 78,8 3,2 29 - 0,0 34 1.014,4
06:43 8,9 5,3 7,3 78,0 2,9 50 - 0,0 33 1.014,5
06:42 8,9 5,4 7,4 78,7 2,8 34 - 0,0 32 1.014,5
06:41 8,9 5,5 7,4 79,0 2,8 47 - 0,0 30 1.014,5
06:40 8,9 5,5 7,4 79,0 2,8 30 - 0,0 28 1.014,5
06:39 8,9 5,5 7,4 79,0 2,7 30 - 0,0 26 1.014,5
06:38 8,9 5,5 7,4 79,0 2,7 22 - 0,0 25 1.014,5
06:37 8,9 5,4 7,4 79,0 2,9 28 - 0,0 24 1.014,4
06:36 8,9 5,5 7,4 79,0 3,0 40 - 0,0 23 1.014,4
06:35 8,8 5,4 7,4 79,0 3,0 39 - 0,0 23 1.014,4
06:34 8,9 5,4 7,4 79,0 3,2 30 - 0,0 21 1.014,4
06:33 8,9 5,4 7,4 79,0 3,3 40 - 0,0 20 1.014,4
06:32 8,9 5,4 7,4 79,0 3,2 36 - 0,0 19 1.014,4
06:31 8,9 5,5 7,4 79,0 3,1 40 - 0,0 18 1.014,4
06:30 8,9 5,4 7,4 79,0 3,0 41 - 0,0 18 1.014,4
06:29 8,9 5,5 7,4 79,0 3,1 38 - 0,0 18 1.014,4
06:28 8,9 5,5 7,4 79,0 3,0 35 - 0,0 16 1.014,4
06:27 8,9 5,5 7,4 79,1 3,1 34 - 0,0 16 1.014,3
06:26 8,9 5,6 7,5 80,0 3,0 39 - 0,0 15 1.014,3
06:25 8,9 5,6 7,5 80,0 3,0 29 - 0,0 14 1.014,3
06:24 8,9 5,6 7,5 80,0 2,7 35 - 0,0 14 1.014,4
06:23 8,9 5,7 7,5 80,0 2,6 22 - 0,0 14 1.014,3
06:22 8,9 5,6 7,5 80,0 2,8 63 - 0,0 13 1.014,3
06:21 8,9 5,7 7,5 80,0 2,8 36 - 0,0 12 1.014,3
06:20 8,9 5,6 7,5 80,0 2,7 39 - 0,0 12 1.014,3
06:19 8,9 5,6 7,5 80,0 2,7 58 - 0,0 12 1.014,3
06:18 8,9 5,6 7,5 80,0 2,6 51 - 0,0 12 1.014,3
06:17 8,8 5,6 7,5 80,0 2,4 29 - 0,0 11 1.014,3
06:16 8,8 5,6 7,4 80,0 2,5 12 - 0,0 11 1.014,3
06:15 8,8 5,6 7,4 80,0 2,5 12 - 0,0 11 1.014,2
06:14 8,8 5,6 7,4 80,0 2,6 61 - 0,0 11 1.014,2
06:13 8,8 5,6 7,4 80,0 2,9 36 - 0,0 11 1.014,2
06:12 8,8 5,6 7,4 80,0 3,0 23 - 0,0 9 1.014,2
06:11 8,8 5,7 7,5 80,8 3,2 355 - 0,0 9 1.014,2
06:10 8,8 5,7 7,5 81,0 3,1 359 - 0,0 9 1.014,2
06:09 8,8 5,7 7,5 81,0 3,0 12 - 0,0 9 1.014,2
06:08 8,8 5,7 7,5 81,0 3,0 11 - 0,0 8 1.014,2
06:07 8,7 5,7 7,4 81,0 3,1 355 - 0,0 7 1.014,2
06:06 8,7 5,7 7,4 81,0 2,8 12 - 0,0 7 1.014,2
06:05 8,7 5,7 7,4 81,0 2,4 355 - 0,0 7 1.014,2
06:04 8,7 5,7 7,4 81,0 2,2 41 - 0,0 7 1.014,1
06:03 8,7 5,6 7,4 81,0 2,2 3 - 0,0 7 1.014,2
06:02 8,7 5,6 7,4 81,0 2,4 32 - 0,0 6 1.014,2
06:01 8,7 5,6 7,4 81,0 2,5 32 - 0,0 5 1.014,1
06:00 8,7 5,6 7,4 81,0 2,6 48 - 0,0 5 1.014,1
 
05:59 8,7 5,6 7,4 81,0 2,1 55 - 0,0 5 1.014,1
05:58 8,7 5,8 7,5 81,9 2,3 330 - 0,0 5 1.014,1
05:57 8,7 5,7 7,4 81,7 2,5 5 - 0,0 5 1.014,1
05:56 8,7 5,7 7,4 81,7 2,5 22 - 0,0 1 1.014,1
05:55 8,7 5,8 7,5 82,0 2,4 28 - 0,0 0 1.014,1
05:54 8,7 5,8 7,5 82,0 2,4 40 - 0,0 0 1.014,1
05:53 8,7 5,8 7,5 82,0 2,4 18 - 0,0 0 1.014,1
05:52 8,6 5,7 7,4 82,0 2,5 19 - 0,0 0 1.014,1
05:51 8,6 5,7 7,4 82,0 2,6 35 - 0,0 0 1.014,1
05:50 8,6 5,7 7,4 82,0 2,6 31 - 0,0 0 1.014,1
05:49 8,6 5,7 7,4 82,0 2,7 12 - 0,0 0 1.014,1
05:48 8,6 5,7 7,4 82,0 2,8 20 - 0,0 0 1.014,1
05:47 8,6 5,7 7,4 82,0 2,8 38 - 0,0 0 1.014,1
05:46 8,5 5,7 7,3 82,0 2,6 20 - 0,0 0 1.014,1
05:45 8,5 5,6 7,3 82,0 2,7 334 - 0,0 0 1.014,1
05:44 8,5 5,6 7,3 82,0 2,4 22 - 0,0 0 1.014,1
05:43 8,5 5,6 7,3 82,0 2,3 41 - 0,0 0 1.014,1
05:42 8,5 5,6 7,3 82,0 2,2 16 - 0,0 0 1.014,1
05:41 8,5 5,6 7,3 82,0 2,4 23 - 0,0 0 1.014,1
05:40 8,5 5,6 7,3 82,0 2,5 26 - 0,0 0 1.014,1
05:39 8,4 5,5 7,2 82,0 2,4 12 - 0,0 0 1.014,1
05:38 8,4 5,6 7,2 82,0 2,4 31 - 0,0 0 1.014,1
05:37 8,4 5,5 7,2 82,0 2,6 36 - 0,0 0 1.014,1
05:36 8,4 5,5 7,2 82,0 2,8 30 - 0,0 0 1.014,1
05:35 8,4 5,5 7,2 82,0 2,6 34 - 0,0 0 1.014,1
05:34 8,4 5,5 7,2 82,0 2,4 33 - 0,0 0 1.014,1
05:33 8,3 5,4 7,1 82,0 2,5 35 - 0,0 0 1.014,0
05:32 8,3 5,4 7,1 82,0 2,5 40 - 0,0 0 1.014,0
05:31 8,3 5,4 7,1 82,0 2,4 32 - 0,0 0 1.014,0
05:30 8,3 5,4 7,1 82,0 2,3 5 - 0,0 0 1.014,0
05:29 8,3 5,4 7,1 82,0 2,2 44 - 0,0 0 1.014,0
05:28 8,2 5,3 7,0 82,0 2,2 57 - 0,0 0 1.014,0
05:27 8,2 5,3 7,0 82,0 2,2 53 - 0,0 0 1.014,1
05:26 8,2 5,3 7,0 82,0 2,3 59 - 0,0 0 1.014,1
05:25 8,2 5,3 7,0 82,0 2,5 36 - 0,0 0 1.014,0
05:24 8,1 5,2 6,9 82,0 2,4 36 - 0,0 0 1.014,0
05:23 8,1 5,2 6,9 82,0 2,3 34 - 0,0 0 1.014,0
05:22 8,1 5,2 6,9 81,8 2,2 37 - 0,0 0 1.014,0
05:21 8,1 5,0 6,8 81,0 2,1 39 - 0,0 0 1.014,0
05:20 8,1 5,0 6,8 81,0 1,9 54 - 0,0 0 1.014,0
05:19 8,1 5,0 6,8 81,0 1,7 47 - 0,0 0 1.014,0
05:18 8,1 5,0 6,8 81,0 1,5 49 - 0,0 0 1.014,0
05:17 8,1 5,0 6,8 81,0 1,5 56 - 0,0 0 1.014,0
05:16 8,1 5,0 6,8 81,0 1,6 53 - 0,0 0 1.014,0
05:15 8,1 5,0 6,8 81,0 1,6 66 - 0,0 0 1.014,0
05:14 8,1 5,1 6,8 81,0 1,5 53 - 0,0 0 1.014,0
05:13 8,1 5,2 6,9 81,7 1,4 55 - 0,0 0 1.014,0
05:12 8,1 5,2 6,9 82,0 1,5 51 - 0,0 0 1.014,0
05:11 8,1 5,2 6,9 82,0 1,7 51 - 0,0 0 1.014,0
05:10 8,1 5,2 6,9 82,0 1,8 50 - 0,0 0 1.014,0
05:09 8,1 5,2 6,9 82,0 1,8 49 - 0,0 0 1.014,0
05:08 8,1 5,2 6,9 82,0 1,8 55 - 0,0 0 1.014,0
05:07 8,1 5,2 6,9 82,0 1,9 54 - 0,0 0 1.013,9
05:06 8,1 5,2 6,9 82,0 2,0 44 - 0,0 0 1.013,9
05:05 8,1 5,2 6,9 82,0 1,9 54 - 0,0 0 1.013,9
05:04 8,1 5,3 6,9 82,0 1,8 68 - 0,0 0 1.013,9
05:03 8,1 5,3 6,9 82,0 1,7 59 - 0,0 0 1.013,9
05:02 8,1 5,3 6,9 82,0 1,7 66 - 0,0 0 1.014,0
05:01 8,2 5,3 7,0 82,0 1,6 64 - 0,0 0 1.014,0
05:00 8,2 5,3 7,0 82,0 1,5 72 - 0,0 0 1.014,0
 
04:59 8,2 5,3 7,0 82,0 1,3 71 - 0,0 0 1.014,0
04:58 8,2 5,3 7,0 82,0 1,3 86 - 0,0 0 1.014,0
04:57 8,2 5,3 7,0 82,0 1,3 80 - 0,0 0 1.014,0
04:56 8,2 5,3 7,0 82,0 1,3 68 - 0,0 0 1.014,0
04:55 8,2 5,3 7,0 82,0 1,3 68 - 0,0 0 1.013,9
04:54 8,2 5,3 7,0 82,0 1,4 59 - 0,0 0 1.013,9
04:53 8,3 5,4 7,1 82,0 1,3 79 - 0,0 0 1.014,0
04:52 8,3 5,4 7,1 82,0 1,2 76 - 0,0 0 1.013,9
04:51 8,3 5,4 7,1 82,0 1,0 71 - 0,0 0 1.013,9
04:50 8,4 5,5 7,2 82,0 0,8 71 - 0,0 0 1.014,0
04:49 8,4 5,5 7,2 82,0 0,7 71 - 0,0 0 1.013,9
04:48 8,4 5,5 7,2 82,0 0,9 71 - 0,0 0 1.014,0
04:47 8,5 5,6 7,3 82,0 1,0 71 - 0,0 0 1.014,0
04:46 8,5 5,6 7,3 82,0 0,9 70 - 0,0 0 1.014,0
04:45 8,5 5,6 7,3 82,0 0,9 36 - 0,0 0 1.014,0
04:44 8,5 5,6 7,3 82,0 0,9 69 - 0,0 0 1.014,0
04:43 8,5 5,6 7,3 82,0 0,9 67 - 0,0 0 1.013,9
04:42 8,6 5,7 7,4 82,0 1,0 60 - 0,0 0 1.013,9
04:41 8,6 5,7 7,4 82,0 1,1 60 - 0,0 0 1.013,9
04:40 8,6 5,7 7,4 82,0 1,1 15 - 0,0 0 1.013,9
04:39 8,6 5,7 7,4 82,0 1,1 70 - 0,0 0 1.013,9
04:38 8,6 5,7 7,4 82,0 1,3 70 - 0,0 0 1.013,9
04:37 8,7 5,8 7,5 82,0 1,4 70 - 0,0 0 1.013,9
04:36 8,7 5,8 7,5 82,0 1,3 61 - 0,0 0 1.013,9
04:35 8,8 5,9 7,6 82,0 1,4 53 - 0,0 0 1.013,9
04:34 8,7 5,9 7,5 82,0 1,6 40 - 0,0 0 1.013,9
04:33 8,8 5,9 7,6 82,0 1,8 52 - 0,0 0 1.013,8
04:32 8,8 5,9 7,6 82,0 1,8 44 - 0,0 0 1.013,9
04:31 8,8 5,9 7,6 82,0 1,8 45 - 0,0 0 1.013,9
04:30 8,8 5,9 7,6 82,0 2,0 61 - 0,0 0 1.013,8
04:29 8,8 5,9 7,6 82,0 2,1 47 - 0,0 0 1.013,8
04:28 8,9 6,0 7,7 82,0 1,9 56 - 0,0 0 1.013,8
04:27 8,9 6,0 7,7 82,0 1,8 51 - 0,0 0 1.013,8
04:26 8,9 6,0 7,7 82,0 1,8 44 - 0,0 0 1.013,8
04:25 8,9 6,0 7,7 82,0 1,7 36 - 0,0 0 1.013,8
04:24 8,9 6,0 7,7 81,9 1,8 32 - 0,0 0 1.013,8
04:23 8,9 5,9 7,6 81,0 1,8 49 - 0,0 0 1.013,8
04:22 9,0 5,9 7,7 81,0 2,0 63 - 0,0 0 1.013,9
04:21 9,0 5,9 7,7 81,0 1,8 43 - 0,0 0 1.013,9
04:20 9,0 5,9 7,7 81,0 2,0 16 - 0,0 0 1.013,8
04:19 9,0 5,9 7,7 81,0 2,1 33 - 0,0 0 1.013,8
04:18 9,0 6,0 7,7 81,0 2,1 45 - 0,0 0 1.013,7
04:17 9,0 6,0 7,7 81,0 2,3 30 - 0,0 0 1.013,8
04:16 9,1 6,0 7,8 81,0 2,1 49 - 0,0 0 1.013,8
04:15 9,1 6,0 7,8 81,0 2,3 46 - 0,0 0 1.013,8
04:14 9,1 6,0 7,8 81,0 1,8 57 - 0,0 0 1.013,8
04:13 9,1 6,0 7,8 81,0 1,8 41 - 0,0 0 1.013,8
04:12 9,1 6,0 7,8 81,0 1,9 39 - 0,0 0 1.013,8
04:11 9,1 6,0 7,8 81,0 2,1 38 - 0,0 0 1.013,8
04:10 9,1 6,0 7,8 81,0 2,0 34 - 0,0 0 1.013,8
04:09 9,1 6,0 7,8 81,0 1,7 38 - 0,0 0 1.013,8
04:08 9,1 6,0 7,8 81,0 1,9 47 - 0,0 0 1.013,7
04:07 9,1 6,0 7,8 81,0 2,5 17 - 0,0 0 1.013,8
04:06 9,1 6,0 7,8 81,0 2,9 29 - 0,0 0 1.013,8
04:05 9,1 6,0 7,8 81,0 2,2 14 - 0,0 0 1.013,7
04:04 9,1 6,0 7,8 81,0 2,1 11 - 0,0 0 1.013,7